Time,TemperatureF,DewpointF,PressureIn,WindDirection,WindDirectionDegrees,WindSpeedMPH,WindSpeedGustMPH,Humidity,HourlyPrecipIn,Conditions,Clouds,dailyrainin,SolarRadiationWatts/m^2,SoftwareType,DateUTC
2013-03-17 00:00:00,18.0,15.0,30.26,West,273,0.0,0.0,88,0.00,,,0.00,0,Wunderground v.1.15,2013-03-17 05:00:00,
2013-03-17 00:03:00,18.1,15.1,30.27,West,273,0.0,0.0,88,0.00,,,0.00,0,Wunderground v.1.15,2013-03-17 05:03:00,
2013-03-17 00:04:00,18.1,15.1,30.27,West,273,0.0,0.0,88,0.00,,,0.00,0,Wunderground v.1.15,2013-03-17 05:04:00,
2013-03-17 00:09:00,18.2,15.2,30.27,West,273,0.0,2.0,88,0.00,,,0.00,0,Wunderground v.1.15,2013-03-17 05:09:00,
2013-03-17 00:10:00,18.2,15.2,30.28,West,273,0.0,1.0,88,0.00,,,0.00,0,Wunderground v.1.15,2013-03-17 05:10:00,
2013-03-17 00:12:00,18.3,15.3,30.28,West,273,1.0,1.0,88,0.00,,,0.00,0,Wunderground v.1.15,2013-03-17 05:12:00,
2013-03-17 00:16:00,18.4,15.2,30.28,West,274,1.0,5.0,87,0.00,,,0.00,0,Wunderground v.1.15,2013-03-17 05:16:00,
2013-03-17 00:18:00,18.5,15.3,30.28,West,274,2.0,5.0,87,0.00,,,0.00,0,Wunderground v.1.15,2013-03-17 05:18:00,
2013-03-17 00:22:00,18.5,15.0,30.28,West,274,2.0,3.0,86,0.00,,,0.00,0,Wunderground v.1.15,2013-03-17 05:22:00,
2013-03-17 00:23:00,18.5,15.0,30.28,West,274,2.0,3.0,86,0.00,,,0.00,0,Wunderground v.1.15,2013-03-17 05:23:00,
2013-03-17 00:25:00,18.5,15.0,30.28,West,274,2.0,3.0,86,0.00,,,0.00,0,Wunderground v.1.15,2013-03-17 05:25:00,
2013-03-17 00:28:00,18.6,14.8,30.28,West,274,2.0,4.0,85,0.00,,,0.00,0,Wunderground v.1.15,2013-03-17 05:28:00,
2013-03-17 00:29:00,18.6,14.8,30.28,West,274,2.0,4.0,85,0.00,,,0.00,0,Wunderground v.1.15,2013-03-17 05:29:00,
2013-03-17 00:30:00,18.6,14.8,30.28,West,274,2.0,2.0,85,0.00,,,0.00,0,Wunderground v.1.15,2013-03-17 05:30:00,
2013-03-17 00:31:00,18.7,14.9,30.28,West,274,3.0,3.0,85,0.00,,,0.00,0,Wunderground v.1.15,2013-03-17 05:31:00,
2013-03-17 00:34:00,18.8,14.8,30.28,West,274,2.0,3.0,84,0.00,,,0.00,0,Wunderground v.1.15,2013-03-17 05:34:00,
2013-03-17 00:35:00,18.8,14.8,30.29,West,274,2.0,3.0,84,0.00,,,0.00,0,Wunderground v.1.15,2013-03-17 05:35:00,
2013-03-17 00:36:00,18.8,14.8,30.29,West,274,2.0,3.0,84,0.00,,,0.00,0,Wunderground v.1.15,2013-03-17 05:36:00,
2013-03-17 00:39:00,18.8,14.5,30.29,West,274,1.0,3.0,83,0.00,,,0.00,0,Wunderground v.1.15,2013-03-17 05:39:00,
2013-03-17 00:41:00,18.8,14.5,30.29,West,274,0.0,1.0,83,0.00,,,0.00,0,Wunderground v.1.15,2013-03-17 05:41:00,
2013-03-17 00:43:00,18.8,14.5,30.29,West,274,0.0,1.0,83,0.00,,,0.00,0,Wunderground v.1.15,2013-03-17 05:43:00,
2013-03-17 00:48:00,18.9,14.3,30.29,West,274,1.0,3.0,82,0.00,,,0.00,0,Wunderground v.1.15,2013-03-17 05:48:00,
2013-03-17 00:51:00,19.0,14.1,30.29,West,274,1.0,2.0,81,0.00,,,0.00,0,Wunderground v.1.15,2013-03-17 05:51:00,
2013-03-17 00:53:00,19.1,13.9,30.29,West,275,1.0,3.0,80,0.00,,,0.00,0,Wunderground v.1.15,2013-03-17 05:53:00,
2013-03-17 00:56:00,19.3,14.1,30.29,West,275,1.0,3.0,80,0.00,,,0.00,0,Wunderground v.1.15,2013-03-17 05:56:00,
2013-03-17 00:57:00,19.4,13.9,30.29,West,275,1.0,3.0,79,0.00,,,0.00,0,Wunderground v.1.15,2013-03-17 05:57:00,
2013-03-17 00:58:00,19.4,13.7,30.30,West,275,1.0,3.0,78,0.00,,,0.00,0,Wunderground v.1.15,2013-03-17 05:58:00,
2013-03-17 00:59:00,19.5,13.8,30.30,West,275,1.0,3.0,78,0.00,,,0.00,0,Wunderground v.1.15,2013-03-17 05:59:00,
2013-03-17 01:01:00,19.6,13.6,30.29,West,275,1.0,1.0,77,0.00,,,0.00,0,Wunderground v.1.15,2013-03-17 06:01:00,
2013-03-17 01:03:00,19.7,13.4,30.30,West,275,0.0,1.0,76,0.00,,,0.00,0,Wunderground v.1.15,2013-03-17 06:03:00,
2013-03-17 01:05:00,19.8,13.2,30.29,West,275,0.0,2.0,75,0.00,,,0.00,0,Wunderground v.1.15,2013-03-17 06:05:00,
2013-03-17 01:06:00,19.8,13.2,30.29,West,275,0.0,2.0,75,0.00,,,0.00,0,Wunderground v.1.15,2013-03-17 06:06:00,
2013-03-17 01:08:00,19.8,12.8,30.29,West,275,1.0,4.0,74,0.00,,,0.00,0,Wunderground v.1.15,2013-03-17 06:08:00,
2013-03-17 01:11:00,19.8,12.5,30.30,West,275,1.0,1.0,73,0.00,,,0.00,0,Wunderground v.1.15,2013-03-17 06:11:00,
2013-03-17 01:14:00,19.8,12.5,30.29,West,275,1.0,1.0,73,0.00,,,0.00,0,Wunderground v.1.15,2013-03-17 06:14:00,
2013-03-17 01:16:00,19.8,12.5,30.29,West,275,1.0,2.0,73,0.00,,,0.00,0,Wunderground v.1.15,2013-03-17 06:16:00,
2013-03-17 01:17:00,19.8,12.2,30.29,West,275,1.0,2.0,72,0.00,,,0.00,0,Wunderground v.1.15,2013-03-17 06:17:00,
2013-03-17 01:21:00,19.7,12.1,30.29,West,275,1.0,2.0,72,0.00,,,0.00,0,Wunderground v.1.15,2013-03-17 06:21:00,
2013-03-17 01:22:00,19.7,12.1,30.29,WNW,288,1.0,3.0,72,0.00,,,0.00,0,Wunderground v.1.15,2013-03-17 06:22:00,
2013-03-17 01:23:00,19.6,12.0,30.29,WNW,288,1.0,3.0,72,0.00,,,0.00,0,Wunderground v.1.15,2013-03-17 06:23:00,
2013-03-17 01:26:00,19.6,12.0,30.30,WNW,288,1.0,3.0,72,0.00,,,0.00,0,Wunderground v.1.15,2013-03-17 06:26:00,
2013-03-17 01:27:00,19.6,12.0,30.30,WNW,288,1.0,3.0,72,0.00,,,0.00,0,Wunderground v.1.15,2013-03-17 06:27:00,
2013-03-17 01:29:00,19.5,11.9,30.30,WNW,288,1.0,3.0,72,0.00,,,0.00,0,Wunderground v.1.15,2013-03-17 06:29:00,
2013-03-17 01:31:00,19.5,11.9,30.29,WNW,288,1.0,2.0,72,0.00,,,0.00,0,Wunderground v.1.15,2013-03-17 06:31:00,
2013-03-17 01:34:00,19.4,11.8,30.29,WNW,288,1.0,2.0,72,0.00,,,0.00,0,Wunderground v.1.15,2013-03-17 06:34:00,
2013-03-17 01:37:00,19.3,11.7,30.30,WNW,288,1.0,2.0,72,0.00,,,0.00,0,Wunderground v.1.15,2013-03-17 06:37:00,
2013-03-17 01:38:00,19.3,11.7,30.30,WNW,288,1.0,2.0,72,0.00,,,0.00,0,Wunderground v.1.15,2013-03-17 06:38:00,
2013-03-17 01:42:00,19.1,11.6,30.30,WNW,288,0.0,1.0,72,0.00,,,0.00,0,Wunderground v.1.15,2013-03-17 06:42:00,
2013-03-17 01:44:00,19.0,11.5,30.30,WNW,288,0.0,2.0,72,0.00,,,0.00,0,Wunderground v.1.15,2013-03-17 06:44:00,
2013-03-17 01:48:00,18.9,11.4,30.30,WNW,288,1.0,4.0,72,0.00,,,0.00,0,Wunderground v.1.15,2013-03-17 06:48:00,
2013-03-17 01:50:00,18.8,11.3,30.30,WNW,288,1.0,1.0,72,0.00,,,0.00,0,Wunderground v.1.15,2013-03-17 06:50:00,
2013-03-17 01:53:00,18.8,11.3,30.30,WNW,288,1.0,2.0,72,0.00,,,0.00,0,Wunderground v.1.15,2013-03-17 06:53:00,
2013-03-17 01:54:00,18.8,11.3,30.30,WNW,288,1.0,2.0,72,0.00,,,0.00,0,Wunderground v.1.15,2013-03-17 06:54:00,
2013-03-17 01:59:00,18.7,10.9,30.30,WNW,288,1.0,2.0,71,0.00,,,0.00,0,Wunderground v.1.15,2013-03-17 06:59:00,
2013-03-17 02:02:00,18.5,11.0,30.31,WNW,288,1.0,1.0,72,0.00,,,0.00,0,Wunderground v.1.15,2013-03-17 07:02:00,
2013-03-17 02:04:00,18.5,11.0,30.31,WNW,288,0.0,1.0,72,0.00,,,0.00,0,Wunderground v.1.15,2013-03-17 07:04:00,
2013-03-17 02:06:00,18.4,10.9,30.31,WNW,288,0.0,1.0,72,0.00,,,0.00,0,Wunderground v.1.15,2013-03-17 07:06:00,
2013-03-17 02:09:00,18.5,11.0,30.31,WNW,288,0.0,1.0,72,0.00,,,0.00,0,Wunderground v.1.15,2013-03-17 07:09:00,
2013-03-17 02:10:00,18.5,10.7,30.31,WNW,288,0.0,0.0,71,0.00,,,0.00,0,Wunderground v.1.15,2013-03-17 07:10:00,
2013-03-17 02:14:00,18.4,10.6,30.31,WNW,288,0.0,0.0,71,0.00,,,0.00,0,Wunderground v.1.15,2013-03-17 07:14:00,
2013-03-17 02:16:00,18.3,10.8,30.31,WNW,288,0.0,0.0,72,0.00,,,0.00,0,Wunderground v.1.15,2013-03-17 07:16:00,
2013-03-17 02:17:00,18.3,10.8,30.31,WNW,288,0.0,0.0,72,0.00,,,0.00,0,Wunderground v.1.15,2013-03-17 07:17:00,
2013-03-17 02:20:00,18.2,10.7,30.31,WNW,288,0.0,0.0,72,0.00,,,0.00,0,Wunderground v.1.15,2013-03-17 07:20:00,
2013-03-17 02:21:00,18.1,10.6,30.31,WNW,288,0.0,2.0,72,0.00,,,0.00,0,Wunderground v.1.15,2013-03-17 07:21:00,
2013-03-17 02:24:00,18.1,10.6,30.31,WNW,288,0.0,2.0,72,0.00,,,0.00,0,Wunderground v.1.15,2013-03-17 07:24:00,
2013-03-17 02:27:00,18.0,10.5,30.31,WNW,288,0.0,2.0,72,0.00,,,0.00,0,Wunderground v.1.15,2013-03-17 07:27:00,
2013-03-17 02:28:00,17.9,10.4,30.31,WNW,288,0.0,2.0,72,0.00,,,0.00,0,Wunderground v.1.15,2013-03-17 07:28:00,
2013-03-17 02:29:00,17.9,10.4,30.31,WNW,288,0.0,2.0,72,0.00,,,0.00,0,Wunderground v.1.15,2013-03-17 07:29:00,
2013-03-17 02:35:00,17.7,10.2,30.31,WNW,288,0.0,2.0,72,0.00,,,0.00,0,Wunderground v.1.15,2013-03-17 07:35:00,
2013-03-17 02:38:00,17.7,10.2,30.32,WNW,288,0.0,2.0,72,0.00,,,0.00,0,Wunderground v.1.15,2013-03-17 07:38:00,
2013-03-17 02:39:00,17.7,10.2,30.32,WNW,288,0.0,2.0,72,0.00,,,0.00,0,Wunderground v.1.15,2013-03-17 07:39:00,
2013-03-17 02:43:00,17.7,10.2,30.32,WNW,288,1.0,1.0,72,0.00,,,0.00,0,Wunderground v.1.15,2013-03-17 07:43:00,
2013-03-17 02:45:00,17.7,10.2,30.32,WNW,288,1.0,1.0,72,0.00,,,0.00,0,Wunderground v.1.15,2013-03-17 07:45:00,
2013-03-17 02:48:00,17.7,10.2,30.32,WNW,288,1.0,1.0,72,0.00,,,0.00,0,Wunderground v.1.15,2013-03-17 07:48:00,
2013-03-17 02:49:00,17.7,10.2,30.32,WNW,288,1.0,1.0,72,0.00,,,0.00,0,Wunderground v.1.15,2013-03-17 07:49:00,
2013-03-17 02:51:00,17.6,10.1,30.32,WNW,288,0.0,1.0,72,0.00,,,0.00,0,Wunderground v.1.15,2013-03-17 07:51:00,
2013-03-17 02:52:00,17.6,10.1,30.32,WNW,288,0.0,1.0,72,0.00,,,0.00,0,Wunderground v.1.15,2013-03-17 07:52:00,
2013-03-17 02:54:00,17.5,10.0,30.32,WNW,288,0.0,1.0,72,0.00,,,0.00,0,Wunderground v.1.15,2013-03-17 07:54:00,
2013-03-17 02:56:00,17.5,10.0,30.32,WNW,288,0.0,1.0,72,0.00,,,0.00,0,Wunderground v.1.15,2013-03-17 07:56:00,
2013-03-17 02:58:00,17.4,9.9,30.32,WNW,288,0.0,1.0,72,0.00,,,0.00,0,Wunderground v.1.15,2013-03-17 07:58:00,
2013-03-17 03:00:00,17.3,9.8,30.32,WNW,288,0.0,0.0,72,0.00,,,0.00,0,Wunderground v.1.15,2013-03-17 08:00:00,
2013-03-17 03:02:00,17.3,10.1,30.32,WNW,288,0.0,0.0,73,0.00,,,0.00,0,Wunderground v.1.15,2013-03-17 08:02:00,
2013-03-17 03:03:00,17.3,10.1,30.32,WNW,288,0.0,0.0,73,0.00,,,0.00,0,Wunderground v.1.15,2013-03-17 08:03:00,
2013-03-17 03:08:00,17.1,9.9,30.31,WNW,288,0.0,1.0,73,0.00,,,0.00,0,Wunderground v.1.15,2013-03-17 08:08:00,
2013-03-17 03:09:00,17.1,9.9,30.31,WNW,288,0.0,1.0,73,0.00,,,0.00,0,Wunderground v.1.15,2013-03-17 08:09:00,
2013-03-17 03:11:00,17.1,9.9,30.31,WNW,288,0.0,0.0,73,0.00,,,0.00,0,Wunderground v.1.15,2013-03-17 08:11:00,
2013-03-17 03:13:00,17.0,9.8,30.32,WNW,288,0.0,0.0,73,0.00,,,0.00,0,Wunderground v.1.15,2013-03-17 08:13:00,
2013-03-17 03:14:00,17.0,9.8,30.32,WNW,288,0.0,0.0,73,0.00,,,0.00,0,Wunderground v.1.15,2013-03-17 08:14:00,
2013-03-17 03:17:00,17.0,9.8,30.32,WNW,288,0.0,1.0,73,0.00,,,0.00,0,Wunderground v.1.15,2013-03-17 08:17:00,
2013-03-17 03:18:00,16.9,9.7,30.31,WNW,288,0.0,1.0,73,0.00,,,0.00,0,Wunderground v.1.15,2013-03-17 08:18:00,
2013-03-17 03:19:00,16.9,9.7,30.31,WNW,288,0.0,1.0,73,0.00,,,0.00,0,Wunderground v.1.15,2013-03-17 08:19:00,
2013-03-17 03:22:00,16.9,9.7,30.31,WNW,288,0.0,0.0,73,0.00,,,0.00,0,Wunderground v.1.15,2013-03-17 08:22:00,
2013-03-17 03:23:00,16.9,9.7,30.31,WNW,288,0.0,0.0,73,0.00,,,0.00,0,Wunderground v.1.15,2013-03-17 08:23:00,
2013-03-17 03:28:00,16.7,9.5,30.32,WNW,288,0.0,0.0,73,0.00,,,0.00,0,Wunderground v.1.15,2013-03-17 08:28:00,
2013-03-17 03:29:00,16.6,9.4,30.32,WNW,288,0.0,1.0,73,0.00,,,0.00,0,Wunderground v.1.15,2013-03-17 08:29:00,
2013-03-17 03:30:00,16.6,9.4,30.32,WNW,288,0.0,0.0,73,0.00,,,0.00,0,Wunderground v.1.15,2013-03-17 08:30:00,
2013-03-17 03:33:00,16.5,9.7,30.31,WNW,288,0.0,0.0,74,0.00,,,0.00,0,Wunderground v.1.15,2013-03-17 08:33:00,
2013-03-17 03:38:00,16.4,9.6,30.32,WNW,288,0.0,2.0,74,0.00,,,0.00,0,Wunderground v.1.15,2013-03-17 08:38:00,
2013-03-17 03:39:00,16.4,9.6,30.32,WNW,288,0.0,2.0,74,0.00,,,0.00,0,Wunderground v.1.15,2013-03-17 08:39:00,
2013-03-17 03:41:00,16.3,9.5,30.32,WNW,288,0.0,0.0,74,0.00,,,0.00,0,Wunderground v.1.15,2013-03-17 08:41:00,
2013-03-17 03:45:00,16.2,9.4,30.32,WNW,288,0.0,0.0,74,0.00,,,0.00,0,Wunderground v.1.15,2013-03-17 08:45:00,
2013-03-17 03:47:00,16.2,9.4,30.32,WNW,288,0.0,1.0,74,0.00,,,0.00,0,Wunderground v.1.15,2013-03-17 08:47:00,
2013-03-17 03:49:00,16.1,9.3,30.31,WNW,288,0.0,2.0,74,0.00,,,0.00,0,Wunderground v.1.15,2013-03-17 08:49:00,
2013-03-17 03:53:00,16.1,9.3,30.31,WNW,288,1.0,1.0,74,0.00,,,0.00,0,Wunderground v.1.15,2013-03-17 08:53:00,
2013-03-17 03:55:00,16.0,9.2,30.31,WNW,288,1.0,1.0,74,0.00,,,0.00,0,Wunderground v.1.15,2013-03-17 08:55:00,
2013-03-17 03:56:00,16.0,9.2,30.31,WNW,288,1.0,1.0,74,0.00,,,0.00,0,Wunderground v.1.15,2013-03-17 08:56:00,
2013-03-17 03:58:00,15.9,9.1,30.31,WNW,288,1.0,1.0,74,0.00,,,0.00,0,Wunderground v.1.15,2013-03-17 08:58:00,
2013-03-17 04:00:00,15.9,9.1,30.31,WNW,288,1.0,1.0,74,0.00,,,0.00,0,Wunderground v.1.15,2013-03-17 09:00:00,
2013-03-17 04:02:00,15.8,9.0,30.31,WNW,288,1.0,1.0,74,0.00,,,0.00,0,Wunderground v.1.15,2013-03-17 09:02:00,
2013-03-17 04:03:00,15.8,9.0,30.31,WNW,288,1.0,1.0,74,0.00,,,0.00,0,Wunderground v.1.15,2013-03-17 09:03:00,
2013-03-17 04:05:00,15.7,9.2,30.31,WNW,288,1.0,1.0,75,0.00,,,0.00,0,Wunderground v.1.15,2013-03-17 09:05:00,
2013-03-17 04:06:00,15.7,9.2,30.31,WNW,288,0.0,1.0,75,0.00,,,0.00,0,Wunderground v.1.15,2013-03-17 09:06:00,
2013-03-17 04:08:00,15.6,9.1,30.31,WNW,288,0.0,1.0,75,0.00,,,0.00,0,Wunderground v.1.15,2013-03-17 09:08:00,
2013-03-17 04:09:00,15.7,9.2,30.31,WNW,288,0.0,1.0,75,0.00,,,0.00,0,Wunderground v.1.15,2013-03-17 09:09:00,
2013-03-17 04:13:00,15.6,9.1,30.31,WNW,292,1.0,4.0,75,0.00,,,0.00,0,Wunderground v.1.15,2013-03-17 09:13:00,
2013-03-17 04:14:00,15.6,9.1,30.31,WNW,292,1.0,4.0,75,0.00,,,0.00,0,Wunderground v.1.15,2013-03-17 09:14:00,
2013-03-17 04:15:00,15.6,9.1,30.31,WNW,292,1.0,4.0,75,0.00,,,0.00,0,Wunderground v.1.15,2013-03-17 09:15:00,
2013-03-17 04:17:00,15.5,9.0,30.31,WNW,292,1.0,4.0,75,0.00,,,0.00,0,Wunderground v.1.15,2013-03-17 09:17:00,
2013-03-17 04:20:00,15.5,9.0,30.31,WNW,292,1.0,2.0,75,0.00,,,0.00,0,Wunderground v.1.15,2013-03-17 09:20:00,
2013-03-17 04:22:00,15.4,8.9,30.31,WNW,292,1.0,2.0,75,0.00,,,0.00,0,Wunderground v.1.15,2013-03-17 09:22:00,
2013-03-17 04:23:00,15.4,8.6,30.31,WNW,292,1.0,2.0,74,0.00,,,0.00,0,Wunderground v.1.15,2013-03-17 09:23:00,
2013-03-17 04:25:00,15.4,8.6,30.31,WNW,292,1.0,2.0,74,0.00,,,0.00,0,Wunderground v.1.15,2013-03-17 09:25:00,
2013-03-17 04:26:00,15.3,8.5,30.31,WNW,292,1.0,2.0,74,0.00,,,0.00,0,Wunderground v.1.15,2013-03-17 09:26:00,
2013-03-17 04:31:00,15.2,8.4,30.31,WNW,293,2.0,2.0,74,0.00,,,0.00,0,Wunderground v.1.15,2013-03-17 09:31:00,
2013-03-17 04:32:00,15.1,8.3,30.31,WNW,293,1.0,2.0,74,0.00,,,0.00,0,Wunderground v.1.15,2013-03-17 09:32:00,
2013-03-17 04:33:00,15.1,8.3,30.31,WNW,293,1.0,2.0,74,0.00,,,0.00,0,Wunderground v.1.15,2013-03-17 09:33:00,
2013-03-17 04:36:00,15.0,8.5,30.31,WNW,293,1.0,2.0,75,0.00,,,0.00,0,Wunderground v.1.15,2013-03-17 09:36:00,
2013-03-17 04:38:00,15.0,8.5,30.30,WNW,295,1.0,3.0,75,0.00,,,0.00,0,Wunderground v.1.15,2013-03-17 09:38:00,
2013-03-17 04:41:00,14.9,8.4,30.30,WNW,302,1.0,3.0,75,0.00,,,0.00,0,Wunderground v.1.15,2013-03-17 09:41:00,
2013-03-17 04:43:00,14.9,8.1,30.30,NNW,327,2.0,3.0,74,0.00,,,0.00,0,Wunderground v.1.15,2013-03-17 09:43:00,
2013-03-17 04:44:00,14.9,8.1,30.30,NNW,330,2.0,3.0,74,0.00,,,0.00,0,Wunderground v.1.15,2013-03-17 09:44:00,
2013-03-17 04:47:00,14.8,8.0,30.31,NNW,330,2.0,3.0,74,0.00,,,0.00,0,Wunderground v.1.15,2013-03-17 09:47:00,
2013-03-17 04:52:00,14.7,7.9,30.31,NNW,330,1.0,2.0,74,0.00,,,0.00,0,Wunderground v.1.15,2013-03-17 09:52:00,
2013-03-17 04:53:00,14.7,7.9,30.31,NNW,332,1.0,4.0,74,0.00,,,0.00,0,Wunderground v.1.15,2013-03-17 09:53:00,
2013-03-17 04:58:00,14.7,7.9,30.31,NE,38,2.0,4.0,74,0.00,,,0.00,0,Wunderground v.1.15,2013-03-17 09:58:00,
2013-03-17 05:00:00,14.6,7.8,30.31,NNW,338,2.0,6.0,74,0.00,,,0.00,0,Wunderground v.1.15,2013-03-17 10:00:00,
2013-03-17 05:01:00,14.7,7.9,30.31,NNW,341,3.0,6.0,74,0.00,,,0.00,0,Wunderground v.1.15,2013-03-17 10:01:00,
2013-03-17 05:04:00,14.7,7.9,30.31,NNW,332,3.0,6.0,74,0.00,,,0.00,0,Wunderground v.1.15,2013-03-17 10:04:00,
2013-03-17 05:06:00,14.8,8.0,30.31,NNW,344,3.0,6.0,74,0.00,,,0.00,0,Wunderground v.1.15,2013-03-17 10:06:00,
2013-03-17 05:08:00,14.7,7.9,30.31,North,355,3.0,6.0,74,0.00,,,0.00,0,Wunderground v.1.15,2013-03-17 10:08:00,
2013-03-17 05:09:00,14.7,7.6,30.31,North,355,3.0,6.0,73,0.00,,,0.00,0,Wunderground v.1.15,2013-03-17 10:09:00,
2013-03-17 05:11:00,14.7,7.6,30.31,North,350,3.0,3.0,73,0.00,,,0.00,0,Wunderground v.1.15,2013-03-17 10:11:00,
2013-03-17 05:15:00,14.6,7.5,30.31,North,350,2.0,3.0,73,0.00,,,0.00,0,Wunderground v.1.15,2013-03-17 10:15:00,
2013-03-17 05:17:00,14.5,7.4,30.31,North,350,2.0,3.0,73,0.00,,,0.00,0,Wunderground v.1.15,2013-03-17 10:17:00,
2013-03-17 05:18:00,14.5,7.4,30.30,North,350,2.0,4.0,73,0.00,,,0.00,0,Wunderground v.1.15,2013-03-17 10:18:00,
2013-03-17 05:19:00,14.5,7.4,30.30,North,350,2.0,4.0,73,0.00,,,0.00,0,Wunderground v.1.15,2013-03-17 10:19:00,
2013-03-17 05:21:00,14.4,7.3,30.30,North,350,2.0,2.0,73,0.00,,,0.00,0,Wunderground v.1.15,2013-03-17 10:21:00,
2013-03-17 05:25:00,14.3,7.2,30.31,NW,323,2.0,4.0,73,0.00,,,0.00,0,Wunderground v.1.15,2013-03-17 10:25:00,
2013-03-17 05:26:00,14.3,7.2,30.31,NW,323,2.0,4.0,73,0.00,,,0.00,0,Wunderground v.1.15,2013-03-17 10:26:00,
2013-03-17 05:28:00,14.3,7.2,30.31,NW,323,2.0,4.0,73,0.00,,,0.00,0,Wunderground v.1.15,2013-03-17 10:28:00,
2013-03-17 05:30:00,14.2,7.1,30.30,NW,323,2.0,3.0,73,0.00,,,0.00,0,Wunderground v.1.15,2013-03-17 10:30:00,
2013-03-17 05:31:00,14.2,7.1,30.30,NW,323,2.0,3.0,73,0.00,,,0.00,0,Wunderground v.1.15,2013-03-17 10:31:00,
2013-03-17 05:32:00,14.1,7.0,30.30,NW,323,2.0,3.0,73,0.00,,,0.00,0,Wunderground v.1.15,2013-03-17 10:32:00,
2013-03-17 05:36:00,14.0,6.9,30.30,NW,323,2.0,4.0,73,0.00,,,0.00,0,Wunderground v.1.15,2013-03-17 10:36:00,
2013-03-17 05:37:00,14.0,6.9,30.31,NW,323,1.0,4.0,73,0.00,,,0.00,0,Wunderground v.1.15,2013-03-17 10:37:00,
2013-03-17 05:38:00,14.0,6.9,30.31,NW,323,1.0,4.0,73,0.00,,,0.00,0,Wunderground v.1.15,2013-03-17 10:38:00,
2013-03-17 05:43:00,14.0,7.2,30.31,NW,323,1.0,2.0,74,0.00,,,0.00,0,Wunderground v.1.15,2013-03-17 10:43:00,
2013-03-17 05:45:00,13.9,7.1,30.31,ENE,70,1.0,3.0,74,0.00,,,0.00,0,Wunderground v.1.15,2013-03-17 10:45:00,
2013-03-17 05:48:00,14.0,6.9,30.31,North,355,2.0,3.0,73,0.00,,,0.00,0,Wunderground v.1.15,2013-03-17 10:48:00,
2013-03-17 05:50:00,14.0,6.9,30.31,North,355,2.0,2.0,73,0.00,,,0.00,0,Wunderground v.1.15,2013-03-17 10:50:00,
2013-03-17 05:51:00,14.0,6.9,30.31,North,355,2.0,2.0,73,0.00,,,0.00,0,Wunderground v.1.15,2013-03-17 10:51:00,
2013-03-17 05:54:00,13.9,6.8,30.31,North,355,2.0,2.0,73,0.00,,,0.00,0,Wunderground v.1.15,2013-03-17 10:54:00,
2013-03-17 05:55:00,13.9,6.8,30.31,NNW,335,2.0,3.0,73,0.00,,,0.00,0,Wunderground v.1.15,2013-03-17 10:55:00,
2013-03-17 05:57:00,13.9,6.8,30.31,North,355,2.0,3.0,73,0.00,,,0.00,0,Wunderground v.1.15,2013-03-17 10:57:00,
2013-03-17 05:59:00,13.9,6.8,30.31,North,355,2.0,3.0,73,0.00,,,0.00,0,Wunderground v.1.15,2013-03-17 10:59:00,
2013-03-17 06:01:00,13.8,6.7,30.31,North,355,2.0,2.0,73,0.00,,,0.00,0,Wunderground v.1.15,2013-03-17 11:01:00,
2013-03-17 06:03:00,13.7,6.6,30.31,North,355,1.0,2.0,73,0.00,,,0.00,0,Wunderground v.1.15,2013-03-17 11:03:00,
2013-03-17 06:04:00,13.6,6.5,30.32,North,355,1.0,2.0,73,0.00,,,0.00,0,Wunderground v.1.15,2013-03-17 11:04:00,
2013-03-17 06:08:00,13.6,6.5,30.32,North,355,1.0,2.0,73,0.00,,,0.00,0,Wunderground v.1.15,2013-03-17 11:08:00,
2013-03-17 06:10:00,13.5,6.5,30.32,North,355,1.0,1.0,73,0.00,,,0.00,0,Wunderground v.1.15,2013-03-17 11:10:00,
2013-03-17 06:13:00,13.5,6.5,30.32,North,355,2.0,3.0,73,0.00,,,0.00,0,Wunderground v.1.15,2013-03-17 11:13:00,
2013-03-17 06:17:00,13.5,6.5,30.32,North,355,1.0,3.0,73,0.00,,,0.00,0,Wunderground v.1.15,2013-03-17 11:17:00,
2013-03-17 06:18:00,13.5,6.5,30.32,North,355,1.0,3.0,73,0.00,,,0.00,0,Wunderground v.1.15,2013-03-17 11:18:00,
2013-03-17 06:19:00,13.5,6.5,30.32,North,355,1.0,3.0,73,0.00,,,0.00,0,Wunderground v.1.15,2013-03-17 11:19:00,
2013-03-17 06:21:00,13.4,6.4,30.32,North,355,1.0,1.0,73,0.00,,,0.00,0,Wunderground v.1.15,2013-03-17 11:21:00,
2013-03-17 06:26:00,13.3,6.6,30.32,NE,53,0.0,1.0,74,0.00,,,0.00,0,Wunderground v.1.15,2013-03-17 11:26:00,
2013-03-17 06:27:00,13.3,6.6,30.32,NE,53,1.0,2.0,74,0.00,,,0.00,0,Wunderground v.1.15,2013-03-17 11:27:00,
2013-03-17 06:28:00,13.3,6.6,30.32,NE,39,1.0,4.0,74,0.00,,,0.00,0,Wunderground v.1.15,2013-03-17 11:28:00,
2013-03-17 06:29:00,13.3,6.6,30.32,ENE,58,1.0,4.0,74,0.00,,,0.00,0,Wunderground v.1.15,2013-03-17 11:29:00,
2013-03-17 06:33:00,13.4,6.4,30.32,NNW,337,2.0,3.0,73,0.00,,,0.00,0,Wunderground v.1.15,2013-03-17 11:33:00,
2013-03-17 06:34:00,13.4,6.4,30.32,North,5,2.0,4.0,73,0.00,,,0.00,0,Wunderground v.1.15,2013-03-17 11:34:00,
2013-03-17 06:35:00,13.4,6.4,30.32,NNE,14,2.0,4.0,73,0.00,,,0.00,0,Wunderground v.1.15,2013-03-17 11:35:00,
2013-03-17 06:36:00,13.5,6.5,30.32,North,9,2.0,4.0,73,0.00,,,0.00,0,Wunderground v.1.15,2013-03-17 11:36:00,
2013-03-17 06:41:00,13.4,6.4,30.32,North,9,2.0,3.0,73,0.00,,,0.00,0,Wunderground v.1.15,2013-03-17 11:41:00,
2013-03-17 06:42:00,13.4,6.4,30.32,North,9,2.0,3.0,73,0.00,,,0.00,0,Wunderground v.1.15,2013-03-17 11:42:00,
2013-03-17 06:46:00,13.4,6.4,30.33,North,9,1.0,3.0,73,0.00,,,0.00,0,Wunderground v.1.15,2013-03-17 11:46:00,
2013-03-17 06:48:00,13.3,6.3,30.33,North,9,1.0,3.0,73,0.00,,,0.00,0,Wunderground v.1.15,2013-03-17 11:48:00,
2013-03-17 06:51:00,13.3,6.3,30.33,North,9,1.0,2.0,73,0.00,,,0.00,0,Wunderground v.1.15,2013-03-17 11:51:00,
2013-03-17 06:52:00,13.3,6.3,30.33,North,9,1.0,2.0,73,0.00,,,0.00,0,Wunderground v.1.15,2013-03-17 11:52:00,
2013-03-17 06:53:00,13.2,6.2,30.33,North,9,1.0,2.0,73,0.00,,,0.00,0,Wunderground v.1.15,2013-03-17 11:53:00,
2013-03-17 06:55:00,13.2,6.2,30.33,North,9,1.0,2.0,73,0.00,,,0.00,0,Wunderground v.1.15,2013-03-17 11:55:00,
2013-03-17 06:57:00,13.1,6.1,30.33,North,9,1.0,3.0,73,0.00,,,0.00,0,Wunderground v.1.15,2013-03-17 11:57:00,
2013-03-17 07:00:00,13.1,6.1,30.33,NNE,12,1.0,3.0,73,0.00,,,0.00,0,Wunderground v.1.15,2013-03-17 12:00:00,
2013-03-17 07:03:00,13.1,6.1,30.33,NNE,12,1.0,3.0,73,0.00,,,0.00,0,Wunderground v.1.15,2013-03-17 12:03:00,
2013-03-17 07:04:00,13.0,6.0,30.33,NNE,12,1.0,3.0,73,0.00,,,0.00,0,Wunderground v.1.15,2013-03-17 12:04:00,
2013-03-17 07:05:00,13.0,6.0,30.33,NNE,12,1.0,3.0,73,0.00,,,0.00,0,Wunderground v.1.15,2013-03-17 12:05:00,
2013-03-17 07:11:00,13.0,6.3,30.33,NNE,22,1.0,5.0,74,0.00,,,0.00,0,Wunderground v.1.15,2013-03-17 12:11:00,
2013-03-17 07:13:00,13.0,6.0,30.33,NNE,22,2.0,5.0,73,0.00,,,0.00,5,Wunderground v.1.15,2013-03-17 12:13:00,
2013-03-17 07:14:00,13.0,6.0,30.33,NNE,22,2.0,5.0,73,0.00,,,0.00,5,Wunderground v.1.15,2013-03-17 12:14:00,
2013-03-17 07:17:00,12.9,5.9,30.33,NNE,25,2.0,5.0,73,0.00,,,0.00,7,Wunderground v.1.15,2013-03-17 12:17:00,
2013-03-17 07:20:00,12.9,5.9,30.34,NNE,26,2.0,2.0,73,0.00,,,0.00,9,Wunderground v.1.15,2013-03-17 12:20:00,
2013-03-17 07:23:00,12.8,5.8,30.34,NNE,26,1.0,2.0,73,0.00,,,0.00,12,Wunderground v.1.15,2013-03-17 12:23:00,
2013-03-17 07:24:00,12.7,5.7,30.34,NNE,26,1.0,2.0,73,0.00,,,0.00,12,Wunderground v.1.15,2013-03-17 12:24:00,
2013-03-17 07:26:00,12.7,5.7,30.34,NNE,26,1.0,2.0,73,0.00,,,0.00,14,Wunderground v.1.15,2013-03-17 12:26:00,
2013-03-17 07:28:00,12.6,5.6,30.34,NNE,26,1.0,3.0,73,0.00,,,0.00,16,Wunderground v.1.15,2013-03-17 12:28:00,
2013-03-17 07:30:00,12.6,5.6,30.34,North,9,1.0,3.0,73,0.00,,,0.00,16,Wunderground v.1.15,2013-03-17 12:30:00,
2013-03-17 07:31:00,12.6,5.6,30.34,NNE,23,1.0,3.0,73,0.00,,,0.00,18,Wunderground v.1.15,2013-03-17 12:31:00,
2013-03-17 07:32:00,12.6,5.6,30.34,NNE,19,1.0,4.0,73,0.00,,,0.00,18,Wunderground v.1.15,2013-03-17 12:32:00,
2013-03-17 07:35:00,12.7,5.7,30.34,NNE,33,2.0,4.0,73,0.00,,,0.00,26,Wunderground v.1.15,2013-03-17 12:35:00,
2013-03-17 07:36:00,12.7,6.0,30.34,NNE,33,2.0,4.0,74,0.00,,,0.00,28,Wunderground v.1.15,2013-03-17 12:36:00,
2013-03-17 07:38:00,12.7,6.0,30.34,NNE,33,2.0,4.0,74,0.00,,,0.00,32,Wunderground v.1.15,2013-03-17 12:38:00,
2013-03-17 07:42:00,12.8,6.1,30.34,NNE,14,2.0,6.0,74,0.00,,,0.00,40,Wunderground v.1.15,2013-03-17 12:42:00,
2013-03-17 07:44:00,12.8,6.1,30.34,NNE,24,2.0,6.0,74,0.00,,,0.00,44,Wunderground v.1.15,2013-03-17 12:44:00,
2013-03-17 07:48:00,13.1,6.1,30.35,NE,38,2.0,6.0,73,0.00,,,0.00,54,Wunderground v.1.15,2013-03-17 12:48:00,
2013-03-17 07:51:00,13.1,6.1,30.35,NNE,19,1.0,3.0,73,0.00,,,0.00,62,Wunderground v.1.15,2013-03-17 12:51:00,
2013-03-17 07:52:00,13.1,6.1,30.35,NNE,26,1.0,3.0,73,0.00,,,0.00,67,Wunderground v.1.15,2013-03-17 12:52:00,
2013-03-17 07:53:00,13.1,6.1,30.35,NNE,26,1.0,3.0,73,0.00,,,0.00,69,Wunderground v.1.15,2013-03-17 12:53:00,
2013-03-17 07:57:00,13.2,6.2,30.35,NNE,26,1.0,3.0,73,0.00,,,0.00,79,Wunderground v.1.15,2013-03-17 12:57:00,
2013-03-17 07:58:00,13.2,6.2,30.35,NNE,26,0.0,3.0,73,0.00,,,0.00,84,Wunderground v.1.15,2013-03-17 12:58:00,
2013-03-17 08:02:00,13.4,6.1,30.35,NE,51,1.0,3.0,72,0.00,,,0.00,97,Wunderground v.1.15,2013-03-17 13:02:00,
2013-03-17 08:04:00,13.4,6.1,30.35,NE,52,1.0,3.0,72,0.00,,,0.00,105,Wunderground v.1.15,2013-03-17 13:04:00,
2013-03-17 08:06:00,13.5,6.1,30.35,NNE,13,1.0,3.0,72,0.00,,,0.00,111,Wunderground v.1.15,2013-03-17 13:06:00,
2013-03-17 08:10:00,13.6,6.2,30.36,ENE,68,2.0,2.0,72,0.00,,,0.00,123,Wunderground v.1.15,2013-03-17 13:10:00,
2013-03-17 08:11:00,13.7,6.3,30.36,ENE,68,2.0,2.0,72,0.00,,,0.00,130,Wunderground v.1.15,2013-03-17 13:11:00,
2013-03-17 08:12:00,13.7,6.3,30.36,NE,46,2.0,3.0,72,0.00,,,0.00,134,Wunderground v.1.15,2013-03-17 13:12:00,
2013-03-17 08:17:00,13.9,6.5,30.36,ENE,59,2.0,5.0,72,0.00,,,0.00,153,Wunderground v.1.15,2013-03-17 13:17:00,
2013-03-17 08:18:00,13.9,6.2,30.36,East,81,2.0,5.0,71,0.00,,,0.00,156,Wunderground v.1.15,2013-03-17 13:18:00,
2013-03-17 08:19:00,13.9,6.2,30.36,East,81,2.0,5.0,71,0.00,,,0.00,160,Wunderground v.1.15,2013-03-17 13:19:00,
2013-03-17 08:22:00,14.0,6.3,30.36,ENE,75,2.0,4.0,71,0.00,,,0.00,174,Wunderground v.1.15,2013-03-17 13:22:00,
2013-03-17 08:23:00,14.1,6.4,30.36,ENE,69,2.0,4.0,71,0.00,,,0.00,178,Wunderground v.1.15,2013-03-17 13:23:00,
2013-03-17 08:27:00,14.2,6.5,30.36,NE,36,2.0,4.0,71,0.00,,,0.00,190,Wunderground v.1.15,2013-03-17 13:27:00,
2013-03-17 08:28:00,14.2,6.5,30.36,NE,49,2.0,4.0,71,0.00,,,0.00,197,Wunderground v.1.15,2013-03-17 13:28:00,
2013-03-17 08:32:00,14.3,6.3,30.36,ENE,64,3.0,4.0,70,0.00,,,0.00,211,Wunderground v.1.15,2013-03-17 13:32:00,
2013-03-17 08:33:00,14.4,6.4,30.36,NE,37,3.0,4.0,70,0.00,,,0.00,218,Wunderground v.1.15,2013-03-17 13:33:00,
2013-03-17 08:34:00,14.4,6.7,30.36,NE,37,3.0,4.0,71,0.00,,,0.00,220,Wunderground v.1.15,2013-03-17 13:34:00,
2013-03-17 08:35:00,14.4,6.4,30.36,East,94,3.0,7.0,70,0.00,,,0.00,223,Wunderground v.1.15,2013-03-17 13:35:00,
2013-03-17 08:38:00,14.5,6.5,30.36,ESE,108,4.0,7.0,70,0.00,,,0.00,236,Wunderground v.1.15,2013-03-17 13:38:00,
2013-03-17 08:41:00,14.6,6.6,30.36,East,86,4.0,4.0,70,0.00,,,0.00,243,Wunderground v.1.15,2013-03-17 13:41:00,
2013-03-17 08:43:00,14.7,6.7,30.36,SSE,155,4.0,4.0,70,0.00,,,0.00,251,Wunderground v.1.15,2013-03-17 13:43:00,
2013-03-17 08:45:00,14.8,6.8,30.36,NE,42,4.0,4.0,70,0.00,,,0.00,257,Wunderground v.1.15,2013-03-17 13:45:00,
2013-03-17 08:47:00,15.0,7.0,30.37,NNE,32,3.0,4.0,70,0.00,,,0.00,264,Wunderground v.1.15,2013-03-17 13:47:00,
2013-03-17 08:51:00,15.2,6.8,30.37,East,81,3.0,10.0,69,0.00,,,0.00,278,Wunderground v.1.15,2013-03-17 13:51:00,
2013-03-17 08:52:00,15.3,6.9,30.37,NE,45,3.0,10.0,69,0.00,,,0.00,281,Wunderground v.1.15,2013-03-17 13:52:00,
2013-03-17 08:54:00,15.4,7.0,30.37,NE,42,3.0,10.0,69,0.00,,,0.00,287,Wunderground v.1.15,2013-03-17 13:54:00,
2013-03-17 08:57:00,15.4,6.7,30.37,East,96,5.0,10.0,68,0.00,,,0.00,297,Wunderground v.1.15,2013-03-17 13:57:00,
2013-03-17 08:59:00,15.3,6.6,30.37,ENE,68,5.0,10.0,68,0.00,,,0.00,302,Wunderground v.1.15,2013-03-17 13:59:00,
2013-03-17 09:02:00,15.4,6.7,30.37,East,79,6.0,6.0,68,0.00,,,0.00,311,Wunderground v.1.15,2013-03-17 14:02:00,
2013-03-17 09:03:00,15.4,6.7,30.37,East,99,6.0,6.0,68,0.00,,,0.00,316,Wunderground v.1.15,2013-03-17 14:03:00,
2013-03-17 09:05:00,15.5,6.8,30.37,ENE,57,6.0,6.0,68,0.00,,,0.00,323,Wunderground v.1.15,2013-03-17 14:05:00,
2013-03-17 09:10:00,15.6,6.9,30.37,North,5,6.0,8.0,68,0.00,,,0.00,338,Wunderground v.1.15,2013-03-17 14:10:00,
2013-03-17 09:11:00,15.7,7.0,30.37,NE,46,6.0,11.0,68,0.00,,,0.00,341,Wunderground v.1.15,2013-03-17 14:11:00,
2013-03-17 09:16:00,15.9,7.2,30.37,NE,48,7.0,11.0,68,0.00,,,0.00,357,Wunderground v.1.15,2013-03-17 14:16:00,
2013-03-17 09:17:00,15.9,7.2,30.37,East,92,8.0,11.0,68,0.00,,,0.00,360,Wunderground v.1.15,2013-03-17 14:17:00,
2013-03-17 09:18:00,15.9,7.2,30.37,East,86,7.0,11.0,68,0.00,,,0.00,371,Wunderground v.1.15,2013-03-17 14:18:00,
2013-03-17 09:22:00,16.0,7.0,30.37,ENE,71,7.0,8.0,67,0.00,,,0.00,376,Wunderground v.1.15,2013-03-17 14:22:00,
2013-03-17 09:23:00,16.2,7.2,30.37,ENE,76,6.0,8.0,67,0.00,,,0.00,381,Wunderground v.1.15,2013-03-17 14:23:00,
2013-03-17 09:25:00,16.4,7.7,30.37,ENE,67,5.0,8.0,68,0.00,,,0.00,387,Wunderground v.1.15,2013-03-17 14:25:00,
2013-03-17 09:29:00,16.6,7.5,30.37,ENE,61,5.0,8.0,67,0.00,,,0.00,397,Wunderground v.1.15,2013-03-17 14:29:00,
2013-03-17 09:31:00,16.6,7.5,30.37,NE,36,6.0,6.0,67,0.00,,,0.00,403,Wunderground v.1.15,2013-03-17 14:31:00,
2013-03-17 09:33:00,16.7,7.6,30.37,East,88,6.0,7.0,67,0.00,,,0.00,410,Wunderground v.1.15,2013-03-17 14:33:00,
2013-03-17 09:37:00,16.7,7.6,30.37,ENE,66,7.0,12.0,67,0.00,,,0.00,420,Wunderground v.1.15,2013-03-17 14:37:00,
2013-03-17 09:38:00,16.9,7.8,30.37,SE,129,7.0,12.0,67,0.00,,,0.00,425,Wunderground v.1.15,2013-03-17 14:38:00,
2013-03-17 09:40:00,17.1,8.0,30.37,NE,54,6.0,10.0,67,0.00,,,0.00,431,Wunderground v.1.15,2013-03-17 14:40:00,
2013-03-17 09:42:00,17.2,8.1,30.37,NE,51,6.0,10.0,67,0.00,,,0.00,436,Wunderground v.1.15,2013-03-17 14:42:00,
2013-03-17 09:45:00,17.3,8.2,30.37,ENE,78,5.0,10.0,67,0.00,,,0.00,445,Wunderground v.1.15,2013-03-17 14:45:00,
2013-03-17 09:46:00,17.4,8.3,30.37,ENE,57,5.0,12.0,67,0.00,,,0.00,448,Wunderground v.1.15,2013-03-17 14:46:00,
2013-03-17 09:49:00,17.4,8.0,30.37,East,82,6.0,12.0,66,0.00,,,0.00,459,Wunderground v.1.15,2013-03-17 14:49:00,
2013-03-17 09:51:00,17.4,8.0,30.37,East,86,6.0,9.0,66,0.00,,,0.00,462,Wunderground v.1.15,2013-03-17 14:51:00,
2013-03-17 09:52:00,17.4,8.0,30.37,NE,36,6.0,9.0,66,0.00,,,0.00,464,Wunderground v.1.15,2013-03-17 14:52:00,
2013-03-17 09:53:00,17.3,7.9,30.37,East,91,6.0,9.0,66,0.00,,,0.00,469,Wunderground v.1.15,2013-03-17 14:53:00,
2013-03-17 09:57:00,17.5,8.1,30.37,NE,47,8.0,15.0,66,0.00,,,0.00,480,Wunderground v.1.15,2013-03-17 14:57:00,
2013-03-17 09:58:00,17.4,8.0,30.36,NE,43,8.0,15.0,66,0.00,,,0.00,487,Wunderground v.1.15,2013-03-17 14:58:00,
2013-03-17 09:59:00,17.4,8.0,30.36,NE,34,8.0,15.0,66,0.00,,,0.00,487,Wunderground v.1.15,2013-03-17 14:59:00,
2013-03-17 10:04:00,17.7,8.3,30.37,ENE,77,7.0,8.0,66,0.00,,,0.00,499,Wunderground v.1.15,2013-03-17 15:04:00,
2013-03-17 10:05:00,17.7,8.3,30.37,East,96,7.0,9.0,66,0.00,,,0.00,503,Wunderground v.1.15,2013-03-17 15:05:00,
2013-03-17 10:07:00,17.9,8.5,30.36,SE,138,6.0,9.0,66,0.00,,,0.00,508,Wunderground v.1.15,2013-03-17 15:07:00,
2013-03-17 10:09:00,18.1,9.0,30.36,NE,49,6.0,9.0,67,0.00,,,0.00,517,Wunderground v.1.15,2013-03-17 15:09:00,
2013-03-17 10:10:00,18.2,8.7,30.37,NNE,24,6.0,6.0,66,0.00,,,0.00,515,Wunderground v.1.15,2013-03-17 15:10:00,
2013-03-17 10:12:00,18.3,8.5,30.37,ESE,113,5.0,6.0,65,0.00,,,0.00,522,Wunderground v.1.15,2013-03-17 15:12:00,
2013-03-17 10:13:00,18.3,8.5,30.37,ESE,123,5.0,6.0,65,0.00,,,0.00,526,Wunderground v.1.15,2013-03-17 15:13:00,
2013-03-17 10:18:00,18.9,9.1,30.37,ENE,67,5.0,11.0,65,0.00,,,0.00,536,Wunderground v.1.15,2013-03-17 15:18:00,
2013-03-17 10:19:00,18.8,9.0,30.37,ENE,77,5.0,11.0,65,0.00,,,0.00,536,Wunderground v.1.15,2013-03-17 15:19:00,
2013-03-17 10:20:00,18.8,9.0,30.37,ENE,67,5.0,5.0,65,0.00,,,0.00,543,Wunderground v.1.15,2013-03-17 15:20:00,
2013-03-17 10:22:00,18.8,9.0,30.37,ENE,74,6.0,6.0,65,0.00,,,0.00,547,Wunderground v.1.15,2013-03-17 15:22:00,
2013-03-17 10:24:00,18.8,8.6,30.37,ENE,61,7.0,10.0,64,0.00,,,0.00,555,Wunderground v.1.15,2013-03-17 15:24:00,
2013-03-17 10:25:00,18.8,8.6,30.37,East,95,7.0,10.0,64,0.00,,,0.00,555,Wunderground v.1.15,2013-03-17 15:25:00,
2013-03-17 10:29:00,19.0,8.8,30.37,ESE,121,7.0,11.0,64,0.00,,,0.00,563,Wunderground v.1.15,2013-03-17 15:29:00,
2013-03-17 10:30:00,18.9,8.7,30.37,ESE,115,7.0,7.0,64,0.00,,,0.00,564,Wunderground v.1.15,2013-03-17 15:30:00,
2013-03-17 10:31:00,18.9,8.7,30.36,SE,131,7.0,7.0,64,0.00,,,0.00,570,Wunderground v.1.15,2013-03-17 15:31:00,
2013-03-17 10:32:00,18.9,8.7,30.36,East,86,7.0,7.0,64,0.00,,,0.00,571,Wunderground v.1.15,2013-03-17 15:32:00,
2013-03-17 10:37:00,19.8,9.2,30.36,ENE,74,6.0,9.0,63,0.00,,,0.00,584,Wunderground v.1.15,2013-03-17 15:37:00,
2013-03-17 10:38:00,19.7,8.8,30.36,East,100,7.0,13.0,62,0.00,,,0.00,585,Wunderground v.1.15,2013-03-17 15:38:00,
2013-03-17 10:39:00,19.7,8.8,30.36,ESE,105,7.0,13.0,62,0.00,,,0.00,589,Wunderground v.1.15,2013-03-17 15:39:00,
2013-03-17 10:44:00,19.7,8.8,30.36,ESE,119,8.0,11.0,62,0.00,,,0.00,599,Wunderground v.1.15,2013-03-17 15:44:00,
2013-03-17 10:45:00,19.7,8.8,30.36,SSE,154,8.0,11.0,62,0.00,,,0.00,601,Wunderground v.1.15,2013-03-17 15:45:00,
2013-03-17 10:46:00,19.7,8.8,30.36,East,86,8.0,11.0,62,0.00,,,0.00,603,Wunderground v.1.15,2013-03-17 15:46:00,
2013-03-17 10:50:00,19.9,9.3,30.36,East,82,8.0,8.0,63,0.00,,,0.00,612,Wunderground v.1.15,2013-03-17 15:50:00,
2013-03-17 10:52:00,19.9,8.6,30.36,East,84,8.0,13.0,61,0.00,,,0.00,615,Wunderground v.1.15,2013-03-17 15:52:00,
2013-03-17 10:54:00,19.8,8.5,30.35,NNE,28,9.0,13.0,61,0.00,,,0.00,622,Wunderground v.1.15,2013-03-17 15:54:00,
2013-03-17 10:58:00,19.8,8.5,30.35,ENE,71,9.0,13.0,61,0.00,,,0.00,629,Wunderground v.1.15,2013-03-17 15:58:00,
2013-03-17 10:59:00,19.8,8.5,30.35,NE,56,9.0,13.0,61,0.00,,,0.00,629,Wunderground v.1.15,2013-03-17 15:59:00,
2013-03-17 11:03:00,20.3,9.0,30.35,ENE,75,9.0,10.0,61,0.00,,,0.00,640,Wunderground v.1.15,2013-03-17 16:03:00,
2013-03-17 11:04:00,20.4,9.1,30.35,ESE,120,9.0,10.0,61,0.00,,,0.00,640,Wunderground v.1.15,2013-03-17 16:04:00,
2013-03-17 11:08:00,20.7,9.4,30.35,NNE,24,7.0,10.0,61,0.00,,,0.00,649,Wunderground v.1.15,2013-03-17 16:08:00,
2013-03-17 11:09:00,20.8,9.5,30.35,ENE,60,7.0,10.0,61,0.00,,,0.00,650,Wunderground v.1.15,2013-03-17 16:09:00,
2013-03-17 11:11:00,21.1,10.1,30.35,ENE,65,7.0,8.0,62,0.00,,,0.00,656,Wunderground v.1.15,2013-03-17 16:11:00,
2013-03-17 11:13:00,21.0,9.3,30.35,NNE,25,7.0,8.0,60,0.00,,,0.00,657,Wunderground v.1.15,2013-03-17 16:13:00,
2013-03-17 11:17:00,20.7,8.6,30.35,East,87,7.0,11.0,59,0.00,,,0.00,664,Wunderground v.1.15,2013-03-17 16:17:00,
2013-03-17 11:19:00,20.9,9.2,30.35,East,81,8.0,12.0,60,0.00,,,0.00,668,Wunderground v.1.15,2013-03-17 16:19:00,
2013-03-17 11:20:00,21.0,9.3,30.35,ENE,69,8.0,8.0,60,0.00,,,0.00,668,Wunderground v.1.15,2013-03-17 16:20:00,
2013-03-17 11:22:00,21.1,9.4,30.35,ENE,62,8.0,8.0,60,0.00,,,0.00,673,Wunderground v.1.15,2013-03-17 16:22:00,
2013-03-17 11:25:00,21.5,9.7,30.35,ENE,71,8.0,8.0,60,0.00,,,0.00,679,Wunderground v.1.15,2013-03-17 16:25:00,
2013-03-17 11:26:00,21.5,9.7,30.35,ESE,105,8.0,8.0,60,0.00,,,0.00,680,Wunderground v.1.15,2013-03-17 16:26:00,
2013-03-17 11:27:00,21.5,9.4,30.35,ESE,103,8.0,8.0,59,0.00,,,0.00,680,Wunderground v.1.15,2013-03-17 16:27:00,
2013-03-17 11:28:00,21.9,10.1,30.35,ENE,66,7.0,8.0,60,0.00,,,0.00,684,Wunderground v.1.15,2013-03-17 16:28:00,
2013-03-17 11:33:00,22.0,9.8,30.35,SE,129,7.0,11.0,59,0.00,,,0.00,691,Wunderground v.1.15,2013-03-17 16:33:00,
2013-03-17 11:35:00,21.9,9.4,30.35,East,88,7.0,11.0,58,0.00,,,0.00,693,Wunderground v.1.15,2013-03-17 16:35:00,
2013-03-17 11:38:00,22.2,10.0,30.35,ESE,123,7.0,11.0,59,0.00,,,0.00,698,Wunderground v.1.15,2013-03-17 16:38:00,
2013-03-17 11:41:00,22.8,10.6,30.34,SE,136,6.0,9.0,59,0.00,,,0.00,701,Wunderground v.1.15,2013-03-17 16:41:00,
2013-03-17 11:42:00,22.6,10.4,30.34,SSE,155,6.0,9.0,59,0.00,,,0.00,703,Wunderground v.1.15,2013-03-17 16:42:00,
2013-03-17 11:44:00,22.2,10.0,30.34,SE,140,6.0,9.0,59,0.00,,,0.00,705,Wunderground v.1.15,2013-03-17 16:44:00,
2013-03-17 11:47:00,22.2,10.0,30.34,East,88,6.0,9.0,59,0.00,,,0.00,712,Wunderground v.1.15,2013-03-17 16:47:00,
2013-03-17 11:48:00,22.2,10.0,30.34,ENE,65,6.0,12.0,59,0.00,,,0.00,714,Wunderground v.1.15,2013-03-17 16:48:00,
2013-03-17 11:49:00,22.3,10.5,30.34,ENE,60,7.0,12.0,60,0.00,,,0.00,714,Wunderground v.1.15,2013-03-17 16:49:00,
2013-03-17 11:50:00,22.4,10.6,30.34,ENE,71,7.0,8.0,60,0.00,,,0.00,715,Wunderground v.1.15,2013-03-17 16:50:00,
2013-03-17 11:53:00,22.7,10.9,30.34,NE,53,6.0,8.0,60,0.00,,,0.00,719,Wunderground v.1.15,2013-03-17 16:53:00,
2013-03-17 11:57:00,23.2,11.7,30.34,East,83,6.0,10.0,61,0.00,,,0.00,724,Wunderground v.1.15,2013-03-17 16:57:00,
2013-03-17 11:59:00,23.2,11.0,30.34,NE,54,6.0,11.0,59,0.00,,,0.00,726,Wunderground v.1.15,2013-03-17 16:59:00,
2013-03-17 12:01:00,23.1,10.5,30.33,NE,55,5.0,8.0,58,0.00,,,0.00,728,Wunderground v.1.15,2013-03-17 17:01:00,
2013-03-17 12:03:00,23.2,11.0,30.33,ESE,116,7.0,11.0,59,0.00,,,0.00,729,Wunderground v.1.15,2013-03-17 17:03:00,
2013-03-17 12:06:00,23.1,10.5,30.33,NE,46,8.0,11.0,58,0.00,,,0.00,733,Wunderground v.1.15,2013-03-17 17:06:00,
2013-03-17 12:07:00,23.1,10.5,30.33,ENE,60,8.0,11.0,58,0.00,,,0.00,733,Wunderground v.1.15,2013-03-17 17:07:00,
2013-03-17 12:10:00,23.5,11.3,30.33,East,98,8.0,8.0,59,0.00,,,0.00,737,Wunderground v.1.15,2013-03-17 17:10:00,
2013-03-17 12:14:00,23.9,11.6,30.33,ENE,71,6.0,8.0,59,0.00,,,0.00,740,Wunderground v.1.15,2013-03-17 17:14:00,
2013-03-17 12:15:00,24.0,11.7,30.33,SSE,167,5.0,8.0,59,0.00,,,0.00,742,Wunderground v.1.15,2013-03-17 17:15:00,
2013-03-17 12:16:00,24.0,11.7,30.32,SSE,157,5.0,8.0,59,0.00,,,0.00,742,Wunderground v.1.15,2013-03-17 17:16:00,
2013-03-17 12:19:00,23.7,11.1,30.32,East,82,6.0,8.0,58,0.00,,,0.00,745,Wunderground v.1.15,2013-03-17 17:19:00,
2013-03-17 12:21:00,23.8,11.5,30.32,East,93,5.0,9.0,59,0.00,,,0.00,747,Wunderground v.1.15,2013-03-17 17:21:00,
2013-03-17 12:23:00,24.0,11.3,30.32,East,92,6.0,9.0,58,0.00,,,0.00,749,Wunderground v.1.15,2013-03-17 17:23:00,
2013-03-17 12:25:00,24.2,11.5,30.32,East,88,6.0,11.0,58,0.00,,,0.00,749,Wunderground v.1.15,2013-03-17 17:25:00,
2013-03-17 12:27:00,24.1,11.0,30.32,ENE,65,7.0,11.0,57,0.00,,,0.00,749,Wunderground v.1.15,2013-03-17 17:27:00,
2013-03-17 12:28:00,24.3,11.6,30.32,ENE,67,7.0,11.0,58,0.00,,,0.00,751,Wunderground v.1.15,2013-03-17 17:28:00,
2013-03-17 12:29:00,24.5,12.6,30.32,East,88,7.0,11.0,60,0.00,,,0.00,751,Wunderground v.1.15,2013-03-17 17:29:00,
2013-03-17 12:31:00,24.4,11.7,30.32,East,82,7.0,7.0,58,0.00,,,0.00,752,Wunderground v.1.15,2013-03-17 17:31:00,
2013-03-17 12:35:00,24.4,11.7,30.31,NE,36,7.0,7.0,58,0.00,,,0.00,756,Wunderground v.1.15,2013-03-17 17:35:00,
2013-03-17 12:36:00,24.4,11.3,30.31,East,99,6.0,7.0,57,0.00,,,0.00,756,Wunderground v.1.15,2013-03-17 17:36:00,
2013-03-17 12:38:00,24.2,11.1,30.31,East,80,6.0,8.0,57,0.00,,,0.00,758,Wunderground v.1.15,2013-03-17 17:38:00,
2013-03-17 12:40:00,24.2,11.1,30.31,East,80,6.0,6.0,57,0.00,,,0.00,759,Wunderground v.1.15,2013-03-17 17:40:00,
2013-03-17 12:41:00,24.6,11.9,30.31,East,92,6.0,8.0,58,0.00,,,0.00,758,Wunderground v.1.15,2013-03-17 17:41:00,
2013-03-17 12:45:00,24.7,11.6,30.31,ENE,67,7.0,11.0,57,0.00,,,0.00,761,Wunderground v.1.15,2013-03-17 17:45:00,
2013-03-17 12:46:00,24.6,11.5,30.31,ENE,57,8.0,11.0,57,0.00,,,0.00,759,Wunderground v.1.15,2013-03-17 17:46:00,
2013-03-17 12:48:00,25.2,12.9,30.31,East,90,7.0,11.0,59,0.00,,,0.00,761,Wunderground v.1.15,2013-03-17 17:48:00,
2013-03-17 12:49:00,25.3,12.6,30.31,SE,143,7.0,11.0,58,0.00,,,0.00,761,Wunderground v.1.15,2013-03-17 17:49:00,
2013-03-17 12:52:00,25.9,13.5,30.31,NE,53,6.0,7.0,59,0.00,,,0.00,763,Wunderground v.1.15,2013-03-17 17:52:00,
2013-03-17 12:53:00,25.8,12.6,30.31,NE,40,6.0,7.0,57,0.00,,,0.00,761,Wunderground v.1.15,2013-03-17 17:53:00,
2013-03-17 12:54:00,25.8,12.6,30.31,ENE,77,6.0,8.0,57,0.00,,,0.00,761,Wunderground v.1.15,2013-03-17 17:54:00,
2013-03-17 12:59:00,25.5,12.4,30.30,ENE,59,6.0,12.0,57,0.00,,,0.00,761,Wunderground v.1.15,2013-03-17 17:59:00,
2013-03-17 13:01:00,25.5,12.4,30.30,SE,126,6.0,6.0,57,0.00,,,0.00,765,Wunderground v.1.15,2013-03-17 18:01:00,
2013-03-17 13:05:00,25.6,12.5,30.30,East,85,6.0,9.0,57,0.00,,,0.00,763,Wunderground v.1.15,2013-03-17 18:05:00,
2013-03-17 13:06:00,25.6,12.5,30.30,ESE,119,6.0,9.0,57,0.00,,,0.00,763,Wunderground v.1.15,2013-03-17 18:06:00,
2013-03-17 13:07:00,25.4,11.9,30.30,SE,134,6.0,9.0,56,0.00,,,0.00,763,Wunderground v.1.15,2013-03-17 18:07:00,
2013-03-17 13:09:00,25.8,13.0,30.30,East,96,6.0,9.0,58,0.00,,,0.00,765,Wunderground v.1.15,2013-03-17 18:09:00,
2013-03-17 13:12:00,25.6,12.1,30.30,ESE,119,7.0,13.0,56,0.00,,,0.00,765,Wunderground v.1.15,2013-03-17 18:12:00,
2013-03-17 13:14:00,25.4,12.3,30.29,SE,128,7.0,13.0,57,0.00,,,0.00,765,Wunderground v.1.15,2013-03-17 18:14:00,
2013-03-17 13:15:00,25.3,12.2,30.29,ESE,116,7.0,13.0,57,0.00,,,0.00,763,Wunderground v.1.15,2013-03-17 18:15:00,
2013-03-17 13:16:00,25.3,12.2,30.29,East,97,8.0,13.0,57,0.00,,,0.00,765,Wunderground v.1.15,2013-03-17 18:16:00,
2013-03-17 13:17:00,25.4,12.3,30.29,SE,136,8.0,13.0,57,0.00,,,0.00,765,Wunderground v.1.15,2013-03-17 18:17:00,
2013-03-17 13:21:00,25.8,13.0,30.29,ESE,119,8.0,11.0,58,0.00,,,0.00,763,Wunderground v.1.15,2013-03-17 18:21:00,
2013-03-17 13:22:00,25.9,12.7,30.28,East,84,8.0,11.0,57,0.00,,,0.00,761,Wunderground v.1.15,2013-03-17 18:22:00,
2013-03-17 13:23:00,26.1,12.5,30.29,East,86,8.0,13.0,56,0.00,,,0.00,763,Wunderground v.1.15,2013-03-17 18:23:00,
2013-03-17 13:26:00,25.9,12.3,30.29,East,97,7.0,13.0,56,0.00,,,0.00,761,Wunderground v.1.15,2013-03-17 18:26:00,
2013-03-17 13:27:00,26.0,12.8,30.29,ENE,77,7.0,13.0,57,0.00,,,0.00,761,Wunderground v.1.15,2013-03-17 18:27:00,
2013-03-17 13:29:00,26.1,12.9,30.28,ENE,61,7.0,13.0,57,0.00,,,0.00,759,Wunderground v.1.15,2013-03-17 18:29:00,
2013-03-17 13:33:00,26.1,12.9,30.28,ESE,121,9.0,15.0,57,0.00,,,0.00,758,Wunderground v.1.15,2013-03-17 18:33:00,
2013-03-17 13:36:00,26.0,12.8,30.28,SE,144,9.0,15.0,57,0.00,,,0.00,758,Wunderground v.1.15,2013-03-17 18:36:00,
2013-03-17 13:37:00,25.8,12.6,30.28,SE,140,9.0,15.0,57,0.00,,,0.00,756,Wunderground v.1.15,2013-03-17 18:37:00,
2013-03-17 13:40:00,26.1,13.3,30.28,East,79,9.0,9.0,58,0.00,,,0.00,754,Wunderground v.1.15,2013-03-17 18:40:00,
2013-03-17 13:44:00,26.2,13.0,30.27,SSE,158,8.0,14.0,57,0.00,,,0.00,752,Wunderground v.1.15,2013-03-17 18:44:00,
2013-03-17 13:47:00,26.3,13.5,30.27,SSE,151,8.0,14.0,58,0.00,,,0.00,751,Wunderground v.1.15,2013-03-17 18:47:00,
2013-03-17 13:50:00,26.3,13.1,30.26,ENE,73,8.0,8.0,57,0.00,,,0.00,749,Wunderground v.1.15,2013-03-17 18:50:00,
2013-03-17 13:52:00,27.1,14.3,30.27,NE,51,7.0,13.0,58,0.00,,,0.00,747,Wunderground v.1.15,2013-03-17 18:52:00,
2013-03-17 13:54:00,27.0,13.4,30.26,ESE,123,7.0,13.0,56,0.00,,,0.00,745,Wunderground v.1.15,2013-03-17 18:54:00,
2013-03-17 13:55:00,27.0,13.8,30.26,SE,128,7.0,14.0,57,0.00,,,0.00,745,Wunderground v.1.15,2013-03-17 18:55:00,
2013-03-17 13:56:00,26.7,13.1,30.26,SE,134,7.0,14.0,56,0.00,,,0.00,744,Wunderground v.1.15,2013-03-17 18:56:00,
2013-03-17 13:59:00,26.6,13.4,30.26,ESE,114,7.0,14.0,57,0.00,,,0.00,742,Wunderground v.1.15,2013-03-17 18:59:00,
2013-03-17 14:03:00,27.3,13.7,30.26,SE,141,6.0,10.0,56,0.00,,,0.00,738,Wunderground v.1.15,2013-03-17 19:03:00,
2013-03-17 14:04:00,27.2,13.6,30.26,ENE,74,6.0,10.0,56,0.00,,,0.00,738,Wunderground v.1.15,2013-03-17 19:04:00,
2013-03-17 14:06:00,27.4,14.1,30.26,NE,54,6.0,10.0,57,0.00,,,0.00,737,Wunderground v.1.15,2013-03-17 19:06:00,
2013-03-17 14:09:00,27.6,14.3,30.26,ENE,63,6.0,11.0,57,0.00,,,0.00,731,Wunderground v.1.15,2013-03-17 19:09:00,
2013-03-17 14:11:00,27.5,13.8,30.26,SE,127,6.0,7.0,56,0.00,,,0.00,729,Wunderground v.1.15,2013-03-17 19:11:00,
2013-03-17 14:14:00,27.4,13.7,30.26,East,83,7.0,8.0,56,0.00,,,0.00,728,Wunderground v.1.15,2013-03-17 19:14:00,
2013-03-17 14:17:00,27.4,14.1,30.26,ENE,61,7.0,11.0,57,0.00,,,0.00,724,Wunderground v.1.15,2013-03-17 19:17:00,
2013-03-17 14:22:00,27.7,14.0,30.25,East,86,6.0,8.0,56,0.00,,,0.00,717,Wunderground v.1.15,2013-03-17 19:22:00,
2013-03-17 14:23:00,27.8,14.1,30.25,ESE,103,6.0,9.0,56,0.00,,,0.00,717,Wunderground v.1.15,2013-03-17 19:23:00,
2013-03-17 14:24:00,27.8,14.1,30.25,ESE,115,7.0,9.0,56,0.00,,,0.00,712,Wunderground v.1.15,2013-03-17 19:24:00,
2013-03-17 14:28:00,27.4,14.1,30.25,ENE,57,6.0,9.0,57,0.00,,,0.00,710,Wunderground v.1.15,2013-03-17 19:28:00,
2013-03-17 14:29:00,27.5,14.6,30.25,ENE,63,6.0,9.0,58,0.00,,,0.00,708,Wunderground v.1.15,2013-03-17 19:29:00,
2013-03-17 14:31:00,28.0,15.1,30.25,NW,313,5.0,6.0,58,0.00,,,0.00,705,Wunderground v.1.15,2013-03-17 19:31:00,
2013-03-17 14:34:00,27.9,14.2,30.25,East,89,6.0,11.0,56,0.00,,,0.00,703,Wunderground v.1.15,2013-03-17 19:34:00,
2013-03-17 14:35:00,27.9,14.2,30.25,ENE,70,5.0,11.0,56,0.00,,,0.00,701,Wunderground v.1.15,2013-03-17 19:35:00,
2013-03-17 14:37:00,28.1,14.8,30.25,ENE,57,6.0,11.0,57,0.00,,,0.00,694,Wunderground v.1.15,2013-03-17 19:37:00,
2013-03-17 14:38:00,28.2,14.9,30.25,East,85,6.0,13.0,57,0.00,,,0.00,694,Wunderground v.1.15,2013-03-17 19:38:00,
2013-03-17 14:42:00,27.9,14.2,30.25,East,81,8.0,8.0,56,0.00,,,0.00,687,Wunderground v.1.15,2013-03-17 19:42:00,
2013-03-17 14:44:00,27.8,14.1,30.25,SSE,150,8.0,12.0,56,0.00,,,0.00,686,Wunderground v.1.15,2013-03-17 19:44:00,
2013-03-17 14:45:00,27.7,14.4,30.24,SSE,148,8.0,12.0,57,0.00,,,0.00,682,Wunderground v.1.15,2013-03-17 19:45:00,
2013-03-17 14:49:00,27.7,14.4,30.24,SSE,159,8.0,12.0,57,0.00,,,0.00,675,Wunderground v.1.15,2013-03-17 19:49:00,
2013-03-17 14:51:00,27.7,14.4,30.24,East,92,7.0,11.0,57,0.00,,,0.00,673,Wunderground v.1.15,2013-03-17 19:51:00,
2013-03-17 14:52:00,27.9,15.0,30.24,ENE,72,7.0,12.0,58,0.00,,,0.00,670,Wunderground v.1.15,2013-03-17 19:52:00,
2013-03-17 14:54:00,28.1,14.8,30.24,NE,45,7.0,12.0,57,0.00,,,0.00,666,Wunderground v.1.15,2013-03-17 19:54:00,
2013-03-17 14:57:00,28.3,15.0,30.24,ESE,112,6.0,12.0,57,0.00,,,0.00,661,Wunderground v.1.15,2013-03-17 19:57:00,
2013-03-17 14:59:00,28.7,15.4,30.23,SE,129,6.0,12.0,57,0.00,,,0.00,657,Wunderground v.1.15,2013-03-17 19:59:00,
2013-03-17 15:01:00,28.7,15.4,30.23,SSE,158,6.0,6.0,57,0.00,,,0.00,654,Wunderground v.1.15,2013-03-17 20:01:00,
2013-03-17 15:04:00,28.8,15.5,30.23,SSE,155,5.0,11.0,57,0.00,,,0.00,649,Wunderground v.1.15,2013-03-17 20:04:00,
2013-03-17 15:06:00,28.7,15.4,30.23,ESE,111,5.0,11.0,57,0.00,,,0.00,643,Wunderground v.1.15,2013-03-17 20:06:00,
2013-03-17 15:09:00,28.6,14.9,30.23,SE,135,6.0,11.0,56,0.00,,,0.00,640,Wunderground v.1.15,2013-03-17 20:09:00,
2013-03-17 15:10:00,28.3,15.0,30.23,SE,138,6.0,9.0,57,0.00,,,0.00,638,Wunderground v.1.15,2013-03-17 20:10:00,
2013-03-17 15:13:00,28.5,16.0,30.22,NE,50,7.0,14.0,59,0.00,,,0.00,631,Wunderground v.1.15,2013-03-17 20:13:00,
2013-03-17 15:17:00,28.9,15.6,30.23,NE,55,8.0,14.0,57,0.00,,,0.00,624,Wunderground v.1.15,2013-03-17 20:17:00,
2013-03-17 15:20:00,28.7,15.8,30.22,ENE,57,9.0,9.0,58,0.00,,,0.00,615,Wunderground v.1.15,2013-03-17 20:20:00,
2013-03-17 15:21:00,28.7,15.8,30.22,East,93,9.0,9.0,58,0.00,,,0.00,613,Wunderground v.1.15,2013-03-17 20:21:00,
2013-03-17 15:23:00,28.6,15.3,30.22,East,100,9.0,9.0,57,0.00,,,0.00,606,Wunderground v.1.15,2013-03-17 20:23:00,
2013-03-17 15:27:00,29.0,16.1,30.23,SE,127,8.0,9.0,58,0.00,,,0.00,599,Wunderground v.1.15,2013-03-17 20:27:00,
2013-03-17 15:28:00,28.9,15.6,30.22,ENE,72,7.0,9.0,57,0.00,,,0.00,598,Wunderground v.1.15,2013-03-17 20:28:00,
2013-03-17 15:29:00,28.8,15.5,30.22,SSE,156,7.0,9.0,57,0.00,,,0.00,596,Wunderground v.1.15,2013-03-17 20:29:00,
2013-03-17 15:30:00,28.8,15.9,30.22,SE,125,7.0,7.0,58,0.00,,,0.00,594,Wunderground v.1.15,2013-03-17 20:30:00,
2013-03-17 15:34:00,29.0,16.1,30.22,ENE,59,7.0,10.0,58,0.00,,,0.00,585,Wunderground v.1.15,2013-03-17 20:34:00,
2013-03-17 15:37:00,29.2,16.2,30.22,East,92,7.0,11.0,58,0.00,,,0.00,578,Wunderground v.1.15,2013-03-17 20:37:00,
2013-03-17 15:38:00,29.3,16.3,30.22,ESE,102,7.0,11.0,58,0.00,,,0.00,573,Wunderground v.1.15,2013-03-17 20:38:00,
2013-03-17 15:40:00,29.2,15.8,30.22,ESE,121,7.0,7.0,57,0.00,,,0.00,571,Wunderground v.1.15,2013-03-17 20:40:00,
2013-03-17 15:41:00,29.3,15.9,30.22,SE,142,7.0,11.0,57,0.00,,,0.00,568,Wunderground v.1.15,2013-03-17 20:41:00,
2013-03-17 15:45:00,29.2,16.6,30.22,ESE,106,7.0,11.0,59,0.00,,,0.00,559,Wunderground v.1.15,2013-03-17 20:45:00,
2013-03-17 15:46:00,29.3,16.7,30.22,ENE,77,7.0,13.0,59,0.00,,,0.00,557,Wunderground v.1.15,2013-03-17 20:46:00,
2013-03-17 15:47:00,29.3,16.3,30.22,ENE,66,7.0,14.0,58,0.00,,,0.00,554,Wunderground v.1.15,2013-03-17 20:47:00,
2013-03-17 15:48:00,29.3,16.7,30.21,NNE,26,8.0,14.0,59,0.00,,,0.00,550,Wunderground v.1.15,2013-03-17 20:48:00,
2013-03-17 15:52:00,29.2,16.2,30.22,ENE,72,8.0,9.0,58,0.00,,,0.00,541,Wunderground v.1.15,2013-03-17 20:52:00,
2013-03-17 15:53:00,29.2,16.2,30.21,East,89,8.0,9.0,58,0.00,,,0.00,536,Wunderground v.1.15,2013-03-17 20:53:00,
2013-03-17 15:54:00,29.2,16.2,30.21,ESE,116,8.0,9.0,58,0.00,,,0.00,534,Wunderground v.1.15,2013-03-17 20:54:00,
2013-03-17 15:56:00,29.3,16.7,30.21,East,85,9.0,10.0,59,0.00,,,0.00,531,Wunderground v.1.15,2013-03-17 20:56:00,
2013-03-17 16:01:00,29.2,16.6,30.21,NE,40,8.0,12.0,59,0.00,,,0.00,520,Wunderground v.1.15,2013-03-17 21:01:00,
2013-03-17 16:02:00,29.3,17.1,30.21,ESE,120,8.0,12.0,60,0.00,,,0.00,515,Wunderground v.1.15,2013-03-17 21:02:00,
2013-03-17 16:04:00,29.4,16.8,30.21,East,86,8.0,12.0,59,0.00,,,0.00,510,Wunderground v.1.15,2013-03-17 21:04:00,
2013-03-17 16:06:00,29.3,16.7,30.21,East,82,8.0,12.0,59,0.00,,,0.00,504,Wunderground v.1.15,2013-03-17 21:06:00,
2013-03-17 16:08:00,29.2,16.6,30.20,NNE,12,8.0,12.0,59,0.00,,,0.00,499,Wunderground v.1.15,2013-03-17 21:08:00,
2013-03-17 16:09:00,29.2,16.6,30.20,ENE,63,8.0,12.0,59,0.00,,,0.00,497,Wunderground v.1.15,2013-03-17 21:09:00,
2013-03-17 16:14:00,29.2,17.0,30.20,ENE,69,9.0,15.0,60,0.00,,,0.00,482,Wunderground v.1.15,2013-03-17 21:14:00,
2013-03-17 16:15:00,29.2,17.0,30.20,North,9,9.0,15.0,60,0.00,,,0.00,478,Wunderground v.1.15,2013-03-17 21:15:00,
2013-03-17 16:18:00,29.1,16.9,30.20,ENE,61,10.0,15.0,60,0.00,,,0.00,471,Wunderground v.1.15,2013-03-17 21:18:00,
2013-03-17 16:20:00,29.1,16.9,30.20,East,79,11.0,11.0,60,0.00,,,0.00,468,Wunderground v.1.15,2013-03-17 21:20:00,
2013-03-17 16:21:00,29.1,16.9,30.20,East,79,11.0,11.0,60,0.00,,,0.00,464,Wunderground v.1.15,2013-03-17 21:21:00,
2013-03-17 16:23:00,29.3,17.5,30.20,SE,146,10.0,11.0,61,0.00,,,0.00,455,Wunderground v.1.15,2013-03-17 21:23:00,
2013-03-17 16:27:00,29.5,17.7,30.20,ENE,57,9.0,11.0,61,0.00,,,0.00,446,Wunderground v.1.15,2013-03-17 21:27:00,
2013-03-17 16:28:00,29.5,17.3,30.20,East,84,8.0,11.0,60,0.00,,,0.00,443,Wunderground v.1.15,2013-03-17 21:28:00,
2013-03-17 16:29:00,29.5,17.7,30.20,ENE,65,8.0,11.0,61,0.00,,,0.00,441,Wunderground v.1.15,2013-03-17 21:29:00,
2013-03-17 16:30:00,29.5,17.3,30.20,ENE,62,8.0,8.0,60,0.00,,,0.00,438,Wunderground v.1.15,2013-03-17 21:30:00,
2013-03-17 16:33:00,29.6,17.4,30.20,SE,126,8.0,9.0,60,0.00,,,0.00,429,Wunderground v.1.15,2013-03-17 21:33:00,
2013-03-17 16:35:00,29.4,17.2,30.19,SE,128,8.0,12.0,60,0.00,,,0.00,424,Wunderground v.1.15,2013-03-17 21:35:00,
2013-03-17 16:36:00,29.4,17.2,30.19,ENE,76,8.0,12.0,60,0.00,,,0.00,420,Wunderground v.1.15,2013-03-17 21:36:00,
2013-03-17 16:37:00,29.4,17.6,30.19,ENE,65,8.0,12.0,61,0.00,,,0.00,417,Wunderground v.1.15,2013-03-17 21:37:00,
2013-03-17 16:40:00,29.7,17.5,30.19,ENE,58,8.0,8.0,60,0.00,,,0.00,406,Wunderground v.1.15,2013-03-17 21:40:00,
2013-03-17 16:43:00,29.6,17.4,30.19,East,83,8.0,8.0,60,0.00,,,0.00,401,Wunderground v.1.15,2013-03-17 21:43:00,
2013-03-17 16:46:00,29.4,17.2,30.19,SSE,153,8.0,13.0,60,0.00,,,0.00,387,Wunderground v.1.15,2013-03-17 21:46:00,
2013-03-17 16:48:00,29.7,17.9,30.19,ENE,61,9.0,13.0,61,0.00,,,0.00,381,Wunderground v.1.15,2013-03-17 21:48:00,
2013-03-17 16:50:00,29.7,17.9,30.19,ENE,70,8.0,8.0,61,0.00,,,0.00,381,Wunderground v.1.15,2013-03-17 21:50:00,
2013-03-17 16:52:00,29.9,18.1,30.19,SSE,150,7.0,8.0,61,0.00,,,0.00,373,Wunderground v.1.15,2013-03-17 21:52:00,
2013-03-17 16:54:00,29.7,17.5,30.18,ESE,121,7.0,10.0,60,0.00,,,0.00,366,Wunderground v.1.15,2013-03-17 21:54:00,
2013-03-17 16:55:00,29.6,17.4,30.18,ESE,119,7.0,10.0,60,0.00,,,0.00,364,Wunderground v.1.15,2013-03-17 21:55:00,
2013-03-17 16:59:00,29.9,18.1,30.19,East,85,6.0,12.0,61,0.00,,,0.00,346,Wunderground v.1.15,2013-03-17 21:59:00,
2013-03-17 17:00:00,29.9,18.1,30.18,ESE,111,6.0,19.0,61,0.00,,,0.00,345,Wunderground v.1.15,2013-03-17 22:00:00,
2013-03-17 17:02:00,29.7,17.9,30.19,ENE,68,8.0,19.0,61,0.00,,,0.00,332,Wunderground v.1.15,2013-03-17 22:02:00,
2013-03-17 17:03:00,29.7,17.9,30.18,ESE,107,8.0,19.0,61,0.00,,,0.00,323,Wunderground v.1.15,2013-03-17 22:03:00,
2013-03-17 17:05:00,29.6,17.4,30.19,ENE,72,8.0,19.0,60,0.00,,,0.00,308,Wunderground v.1.15,2013-03-17 22:05:00,
2013-03-17 17:07:00,29.5,17.7,30.19,ENE,78,9.0,19.0,61,0.00,,,0.00,294,Wunderground v.1.15,2013-03-17 22:07:00,
2013-03-17 17:08:00,29.4,17.6,30.18,ENE,57,10.0,19.0,61,0.00,,,0.00,294,Wunderground v.1.15,2013-03-17 22:08:00,
2013-03-17 17:13:00,29.3,17.5,30.18,ENE,69,11.0,13.0,61,0.00,,,0.00,292,Wunderground v.1.15,2013-03-17 22:13:00,
2013-03-17 17:14:00,29.3,17.5,30.18,NE,54,11.0,13.0,61,0.00,,,0.00,292,Wunderground v.1.15,2013-03-17 22:14:00,
2013-03-17 17:18:00,29.3,17.5,30.18,ENE,66,10.0,13.0,61,0.00,,,0.00,272,Wunderground v.1.15,2013-03-17 22:18:00,
2013-03-17 17:19:00,29.2,17.8,30.18,ENE,71,10.0,13.0,62,0.00,,,0.00,258,Wunderground v.1.15,2013-03-17 22:19:00,
2013-03-17 17:20:00,29.3,17.9,30.18,East,94,9.0,9.0,62,0.00,,,0.00,246,Wunderground v.1.15,2013-03-17 22:20:00,
2013-03-17 17:25:00,29.4,17.6,30.18,SE,131,7.0,9.0,61,0.00,,,0.00,246,Wunderground v.1.15,2013-03-17 22:25:00,
2013-03-17 17:26:00,29.3,17.9,30.18,SE,143,6.0,9.0,62,0.00,,,0.00,244,Wunderground v.1.15,2013-03-17 22:26:00,
2013-03-17 17:29:00,29.2,18.2,30.18,South,180,6.0,9.0,63,0.00,,,0.00,239,Wunderground v.1.15,2013-03-17 22:29:00,
2013-03-17 17:33:00,29.2,17.8,30.18,ESE,114,5.0,9.0,62,0.00,,,0.00,241,Wunderground v.1.15,2013-03-17 22:33:00,
2013-03-17 17:37:00,29.2,18.2,30.17,ESE,102,6.0,9.0,63,0.00,,,0.00,229,Wunderground v.1.15,2013-03-17 22:37:00,
2013-03-17 17:38:00,29.2,17.8,30.17,ESE,102,6.0,9.0,62,0.00,,,0.00,214,Wunderground v.1.15,2013-03-17 22:38:00,
2013-03-17 17:39:00,29.1,17.7,30.17,East,80,6.0,9.0,62,0.00,,,0.00,216,Wunderground v.1.15,2013-03-17 22:39:00,
2013-03-17 17:42:00,29.2,18.2,30.17,ENE,67,6.0,7.0,63,0.00,,,0.00,204,Wunderground v.1.15,2013-03-17 22:42:00,
2013-03-17 17:44:00,29.4,18.7,30.18,East,92,6.0,8.0,64,0.00,,,0.00,193,Wunderground v.1.15,2013-03-17 22:44:00,
2013-03-17 17:45:00,29.4,18.3,30.17,East,94,6.0,14.0,63,0.00,,,0.00,188,Wunderground v.1.15,2013-03-17 22:45:00,
2013-03-17 17:47:00,29.3,18.3,30.18,ESE,105,6.0,14.0,63,0.00,,,0.00,181,Wunderground v.1.15,2013-03-17 22:47:00,
2013-03-17 17:48:00,29.3,18.3,30.17,East,93,6.0,14.0,63,0.00,,,0.00,179,Wunderground v.1.15,2013-03-17 22:48:00,
2013-03-17 17:53:00,29.2,18.5,30.18,NE,49,7.0,11.0,64,0.00,,,0.00,160,Wunderground v.1.15,2013-03-17 22:53:00,
2013-03-17 17:54:00,29.2,18.2,30.18,ENE,66,7.0,11.0,63,0.00,,,0.00,158,Wunderground v.1.15,2013-03-17 22:54:00,
2013-03-17 17:55:00,29.2,18.2,30.17,ESE,107,7.0,14.0,63,0.00,,,0.00,149,Wunderground v.1.15,2013-03-17 22:55:00,
2013-03-17 18:01:00,29.0,18.3,30.17,ESE,121,8.0,9.0,64,0.00,,,0.00,132,Wunderground v.1.15,2013-03-17 23:01:00,
2013-03-17 18:02:00,29.1,18.4,30.17,SSE,150,8.0,9.0,64,0.00,,,0.00,127,Wunderground v.1.15,2013-03-17 23:02:00,
2013-03-17 18:03:00,29.0,18.3,30.17,ENE,67,9.0,9.0,64,0.00,,,0.00,125,Wunderground v.1.15,2013-03-17 23:03:00,
2013-03-17 18:05:00,29.0,18.3,30.16,NE,55,9.0,10.0,64,0.00,,,0.00,118,Wunderground v.1.15,2013-03-17 23:05:00,
2013-03-17 18:09:00,28.9,18.2,30.16,ENE,64,9.0,14.0,64,0.00,,,0.00,98,Wunderground v.1.15,2013-03-17 23:09:00,
2013-03-17 18:10:00,28.9,18.2,30.16,ENE,67,9.0,10.0,64,0.00,,,0.00,97,Wunderground v.1.15,2013-03-17 23:10:00,
2013-03-17 18:13:00,28.9,18.6,30.16,ENE,71,9.0,12.0,65,0.00,,,0.00,98,Wunderground v.1.15,2013-03-17 23:13:00,
2013-03-17 18:14:00,28.9,18.6,30.16,East,96,9.0,12.0,65,0.00,,,0.00,98,Wunderground v.1.15,2013-03-17 23:14:00,
2013-03-17 18:15:00,28.8,18.5,30.16,SE,143,9.0,17.0,65,0.00,,,0.00,95,Wunderground v.1.15,2013-03-17 23:15:00,
2013-03-17 18:18:00,28.8,18.5,30.16,East,98,8.0,17.0,65,0.00,,,0.00,84,Wunderground v.1.15,2013-03-17 23:18:00,
2013-03-17 18:20:00,28.8,18.5,30.16,ENE,64,8.0,8.0,65,0.00,,,0.00,79,Wunderground v.1.15,2013-03-17 23:20:00,
2013-03-17 18:22:00,28.8,18.5,30.16,East,80,8.0,10.0,65,0.00,,,0.00,74,Wunderground v.1.15,2013-03-17 23:22:00,
2013-03-17 18:25:00,28.8,18.5,30.16,ESE,113,8.0,10.0,65,0.00,,,0.00,65,Wunderground v.1.15,2013-03-17 23:25:00,
2013-03-17 18:27:00,28.8,18.5,30.16,ESE,117,8.0,10.0,65,0.00,,,0.00,60,Wunderground v.1.15,2013-03-17 23:27:00,
2013-03-17 18:29:00,28.8,18.9,30.16,East,96,8.0,10.0,66,0.00,,,0.00,56,Wunderground v.1.15,2013-03-17 23:29:00,
2013-03-17 18:30:00,28.8,18.5,30.16,ESE,110,7.0,9.0,65,0.00,,,0.00,53,Wunderground v.1.15,2013-03-17 23:30:00,
2013-03-17 18:32:00,28.7,18.8,30.16,ENE,74,8.0,9.0,66,0.00,,,0.00,47,Wunderground v.1.15,2013-03-17 23:32:00,
2013-03-17 18:35:00,28.7,18.4,30.15,ESE,122,8.0,12.0,65,0.00,,,0.00,42,Wunderground v.1.15,2013-03-17 23:35:00,
2013-03-17 18:36:00,28.7,18.4,30.15,ENE,67,8.0,12.0,65,0.00,,,0.00,40,Wunderground v.1.15,2013-03-17 23:36:00,
2013-03-17 18:40:00,28.6,18.3,30.15,East,97,9.0,9.0,65,0.00,,,0.00,33,Wunderground v.1.15,2013-03-17 23:40:00,
2013-03-17 18:41:00,28.6,18.3,30.15,East,101,9.0,11.0,65,0.00,,,0.00,32,Wunderground v.1.15,2013-03-17 23:41:00,
2013-03-17 18:43:00,28.6,18.7,30.15,East,88,8.0,12.0,66,0.00,,,0.00,26,Wunderground v.1.15,2013-03-17 23:43:00,
2013-03-17 18:45:00,28.6,18.7,30.15,ESE,107,8.0,12.0,66,0.00,,,0.00,25,Wunderground v.1.15,2013-03-17 23:45:00,
2013-03-17 18:46:00,28.6,18.7,30.15,ESE,117,8.0,12.0,66,0.00,,,0.00,23,Wunderground v.1.15,2013-03-17 23:46:00,
2013-03-17 18:50:00,28.5,18.6,30.15,ESE,108,7.0,11.0,66,0.00,,,0.00,19,Wunderground v.1.15,2013-03-17 23:50:00,
2013-03-17 18:52:00,28.5,18.6,30.15,East,101,7.0,11.0,66,0.00,,,0.00,18,Wunderground v.1.15,2013-03-17 23:52:00,
2013-03-17 18:56:00,28.4,18.8,30.15,East,94,6.0,11.0,67,0.00,,,0.00,12,Wunderground v.1.15,2013-03-17 23:56:00,
2013-03-17 18:58:00,28.3,18.4,30.15,East,89,7.0,12.0,66,0.00,,,0.00,12,Wunderground v.1.15,2013-03-17 23:58:00,
2013-03-17 19:00:00,28.2,18.3,30.15,ENE,65,7.0,7.0,66,0.00,,,0.00,11,Wunderground v.1.15,2013-03-18 00:00:00,
2013-03-17 19:03:00,28.1,18.2,30.15,ENE,59,7.0,9.0,66,0.00,,,0.00,7,Wunderground v.1.15,2013-03-18 00:03:00,
2013-03-17 19:04:00,28.0,18.1,30.15,ENE,71,7.0,10.0,66,0.00,,,0.00,7,Wunderground v.1.15,2013-03-18 00:04:00,
2013-03-17 19:05:00,28.0,18.1,30.15,East,88,8.0,10.0,66,0.00,,,0.00,7,Wunderground v.1.15,2013-03-18 00:05:00,
2013-03-17 19:10:00,27.8,17.9,30.15,ENE,69,6.0,6.0,66,0.00,,,0.00,0,Wunderground v.1.15,2013-03-18 00:10:00,
2013-03-17 19:16:00,27.6,17.7,30.15,ENE,66,7.0,13.0,66,0.00,,,0.00,0,Wunderground v.1.15,2013-03-18 00:16:00,
2013-03-17 19:17:00,27.5,17.6,30.15,ENE,57,7.0,13.0,66,0.00,,,0.00,0,Wunderground v.1.15,2013-03-18 00:17:00,
2013-03-17 19:19:00,27.5,18.0,30.15,NE,56,7.0,13.0,67,0.00,,,0.00,0,Wunderground v.1.15,2013-03-18 00:19:00,
2013-03-17 19:20:00,27.4,17.9,30.15,ENE,66,7.0,7.0,67,0.00,,,0.00,0,Wunderground v.1.15,2013-03-18 00:20:00,
2013-03-17 19:22:00,27.4,17.9,30.15,NNE,21,7.0,7.0,67,0.00,,,0.00,0,Wunderground v.1.15,2013-03-18 00:22:00,
2013-03-17 19:23:00,27.3,17.8,30.15,ENE,57,7.0,7.0,67,0.00,,,0.00,0,Wunderground v.1.15,2013-03-18 00:23:00,
2013-03-17 19:26:00,27.2,17.7,30.15,SE,139,6.0,7.0,67,0.00,,,0.00,0,Wunderground v.1.15,2013-03-18 00:26:00,
2013-03-17 19:28:00,27.2,17.7,30.16,NE,51,6.0,7.0,67,0.00,,,0.00,0,Wunderground v.1.15,2013-03-18 00:28:00,
2013-03-17 19:31:00,27.1,17.6,30.16,ENE,74,6.0,8.0,67,0.00,,,0.00,0,Wunderground v.1.15,2013-03-18 00:31:00,
2013-03-17 19:32:00,27.1,17.9,30.16,East,97,6.0,8.0,68,0.00,,,0.00,0,Wunderground v.1.15,2013-03-18 00:32:00,
2013-03-17 19:33:00,27.1,17.9,30.16,ENE,57,6.0,8.0,68,0.00,,,0.00,0,Wunderground v.1.15,2013-03-18 00:33:00,
2013-03-17 19:36:00,27.0,17.8,30.16,ENE,61,6.0,8.0,68,0.00,,,0.00,0,Wunderground v.1.15,2013-03-18 00:36:00,
2013-03-17 19:39:00,27.0,17.8,30.16,East,101,6.0,8.0,68,0.00,,,0.00,0,Wunderground v.1.15,2013-03-18 00:39:00,
2013-03-17 19:40:00,27.0,17.8,30.16,ENE,76,6.0,6.0,68,0.00,,,0.00,0,Wunderground v.1.15,2013-03-18 00:40:00,
2013-03-17 19:41:00,26.9,17.7,30.16,ENE,63,6.0,6.0,68,0.00,,,0.00,0,Wunderground v.1.15,2013-03-18 00:41:00,
2013-03-17 19:46:00,26.9,17.7,30.16,East,96,6.0,7.0,68,0.00,,,0.00,0,Wunderground v.1.15,2013-03-18 00:46:00,
2013-03-17 19:47:00,26.9,17.7,30.16,East,100,6.0,7.0,68,0.00,,,0.00,0,Wunderground v.1.15,2013-03-18 00:47:00,
2013-03-17 19:48:00,26.8,17.6,30.16,ENE,63,5.0,7.0,68,0.00,,,0.00,0,Wunderground v.1.15,2013-03-18 00:48:00,
2013-03-17 19:52:00,26.8,18.0,30.16,NE,56,6.0,7.0,69,0.00,,,0.00,0,Wunderground v.1.15,2013-03-18 00:52:00,
2013-03-17 19:55:00,26.7,17.9,30.16,ENE,78,5.0,7.0,69,0.00,,,0.00,0,Wunderground v.1.15,2013-03-18 00:55:00,
2013-03-17 19:56:00,26.7,17.9,30.16,NE,49,5.0,7.0,69,0.00,,,0.00,0,Wunderground v.1.15,2013-03-18 00:56:00,
2013-03-17 19:57:00,26.7,17.9,30.16,East,86,5.0,7.0,69,0.00,,,0.00,0,Wunderground v.1.15,2013-03-18 00:57:00,
2013-03-17 19:59:00,26.6,17.8,30.16,East,95,5.0,7.0,69,0.00,,,0.00,0,Wunderground v.1.15,2013-03-18 00:59:00,
2013-03-17 20:03:00,26.6,17.8,30.16,ENE,59,6.0,8.0,69,0.00,,,0.00,0,Wunderground v.1.15,2013-03-18 01:03:00,
2013-03-17 20:06:00,26.6,17.8,30.16,ESE,105,6.0,11.0,69,0.00,,,0.00,0,Wunderground v.1.15,2013-03-18 01:06:00,
2013-03-17 20:08:00,26.6,17.8,30.16,East,97,6.0,11.0,69,0.00,,,0.00,0,Wunderground v.1.15,2013-03-18 01:08:00,
2013-03-17 20:09:00,26.6,17.8,30.16,ENE,64,6.0,11.0,69,0.00,,,0.00,0,Wunderground v.1.15,2013-03-18 01:09:00,
2013-03-17 20:10:00,26.6,17.8,30.16,ENE,67,6.0,6.0,69,0.00,,,0.00,0,Wunderground v.1.15,2013-03-18 01:10:00,
2013-03-17 20:15:00,26.4,17.6,30.16,East,99,5.0,6.0,69,0.00,,,0.00,0,Wunderground v.1.15,2013-03-18 01:15:00,
2013-03-17 20:16:00,26.3,17.8,30.16,ENE,74,4.0,7.0,70,0.00,,,0.00,0,Wunderground v.1.15,2013-03-18 01:16:00,
2013-03-17 20:19:00,26.3,17.8,30.16,ENE,58,3.0,7.0,70,0.00,,,0.00,0,Wunderground v.1.15,2013-03-18 01:19:00,
2013-03-17 20:20:00,26.2,17.7,30.16,ENE,64,3.0,3.0,70,0.00,,,0.00,0,Wunderground v.1.15,2013-03-18 01:20:00,
2013-03-17 20:23:00,26.1,17.6,30.16,NE,52,3.0,3.0,70,0.00,,,0.00,0,Wunderground v.1.15,2013-03-18 01:23:00,
2013-03-17 20:25:00,26.0,17.6,30.16,East,88,3.0,4.0,70,0.00,,,0.00,0,Wunderground v.1.15,2013-03-18 01:25:00,
2013-03-17 20:26:00,26.0,17.6,30.16,East,81,3.0,4.0,70,0.00,,,0.00,0,Wunderground v.1.15,2013-03-18 01:26:00,
2013-03-17 20:29:00,26.0,17.9,30.15,NE,54,3.0,5.0,71,0.00,,,0.00,0,Wunderground v.1.15,2013-03-18 01:29:00,
2013-03-17 20:30:00,25.9,17.8,30.15,ENE,66,3.0,6.0,71,0.00,,,0.00,0,Wunderground v.1.15,2013-03-18 01:30:00,
2013-03-17 20:33:00,25.9,17.5,30.15,ENE,76,4.0,8.0,70,0.00,,,0.00,0,Wunderground v.1.15,2013-03-18 01:33:00,
2013-03-17 20:34:00,25.9,17.8,30.15,ENE,70,4.0,8.0,71,0.00,,,0.00,0,Wunderground v.1.15,2013-03-18 01:34:00,
2013-03-17 20:36:00,25.9,17.8,30.14,East,88,4.0,8.0,71,0.00,,,0.00,0,Wunderground v.1.15,2013-03-18 01:36:00,
2013-03-17 20:40:00,25.8,17.7,30.14,East,100,4.0,4.0,71,0.00,,,0.00,0,Wunderground v.1.15,2013-03-18 01:40:00,
2013-03-17 20:41:00,25.7,17.6,30.14,ENE,71,4.0,5.0,71,0.00,,,0.00,0,Wunderground v.1.15,2013-03-18 01:41:00,
2013-03-17 20:43:00,25.7,17.6,30.14,East,87,4.0,5.0,71,0.00,,,0.00,0,Wunderground v.1.15,2013-03-18 01:43:00,
2013-03-17 20:47:00,25.6,17.5,30.14,East,98,4.0,11.0,71,0.00,,,0.00,0,Wunderground v.1.15,2013-03-18 01:47:00,
2013-03-17 20:52:00,25.6,17.5,30.14,ESE,118,5.0,5.0,71,0.00,,,0.00,0,Wunderground v.1.15,2013-03-18 01:52:00,
2013-03-17 20:53:00,25.6,17.5,30.14,ENE,74,5.0,5.0,71,0.00,,,0.00,0,Wunderground v.1.15,2013-03-18 01:53:00,
2013-03-17 20:57:00,25.6,17.5,30.14,East,92,5.0,5.0,71,0.00,,,0.00,0,Wunderground v.1.15,2013-03-18 01:57:00,
2013-03-17 20:58:00,25.6,17.5,30.14,East,84,5.0,5.0,71,0.00,,,0.00,0,Wunderground v.1.15,2013-03-18 01:58:00,
2013-03-17 21:00:00,25.5,17.4,30.14,ESE,103,5.0,7.0,71,0.00,,,0.00,0,Wunderground v.1.15,2013-03-18 02:00:00,
2013-03-17 21:05:00,25.5,17.4,30.14,NE,42,5.0,8.0,71,0.00,,,0.00,0,Wunderground v.1.15,2013-03-18 02:05:00,
2013-03-17 21:06:00,25.6,17.5,30.14,East,84,5.0,8.0,71,0.00,,,0.00,0,Wunderground v.1.15,2013-03-18 02:06:00,
2013-03-17 21:07:00,25.5,17.4,30.14,East,96,5.0,8.0,71,0.00,,,0.00,0,Wunderground v.1.15,2013-03-18 02:07:00,
2013-03-17 21:11:00,25.5,17.4,30.14,East,89,6.0,6.0,71,0.00,,,0.00,0,Wunderground v.1.15,2013-03-18 02:11:00,
2013-03-17 21:12:00,25.5,17.4,30.14,East,79,6.0,6.0,71,0.00,,,0.00,0,Wunderground v.1.15,2013-03-18 02:12:00,
2013-03-17 21:14:00,25.4,17.3,30.14,East,96,5.0,7.0,71,0.00,,,0.00,0,Wunderground v.1.15,2013-03-18 02:14:00,
2013-03-17 21:18:00,25.4,17.3,30.13,ENE,74,7.0,10.0,71,0.00,,,0.00,0,Wunderground v.1.15,2013-03-18 02:18:00,
2013-03-17 21:20:00,25.4,17.3,30.14,ESE,110,6.0,6.0,71,0.00,,,0.00,0,Wunderground v.1.15,2013-03-18 02:20:00,
2013-03-17 21:21:00,25.4,17.3,30.14,ESE,105,6.0,6.0,71,0.00,,,0.00,0,Wunderground v.1.15,2013-03-18 02:21:00,
2013-03-17 21:24:00,25.3,17.2,30.14,NE,51,6.0,12.0,71,0.00,,,0.00,0,Wunderground v.1.15,2013-03-18 02:24:00,
2013-03-17 21:25:00,25.3,17.2,30.14,North,360,6.0,12.0,71,0.00,,,0.00,0,Wunderground v.1.15,2013-03-18 02:25:00,
2013-03-17 21:27:00,25.3,17.2,30.13,ENE,63,6.0,12.0,71,0.00,,,0.00,0,Wunderground v.1.15,2013-03-18 02:27:00,
2013-03-17 21:29:00,25.3,17.2,30.13,NE,48,5.0,12.0,71,0.00,,,0.00,0,Wunderground v.1.15,2013-03-18 02:29:00,
2013-03-17 21:30:00,25.2,17.1,30.13,NE,56,5.0,5.0,71,0.00,,,0.00,0,Wunderground v.1.15,2013-03-18 02:30:00,
2013-03-17 21:33:00,25.2,17.1,30.13,ENE,57,6.0,12.0,71,0.00,,,0.00,0,Wunderground v.1.15,2013-03-18 02:33:00,
2013-03-17 21:38:00,25.1,17.0,30.13,ENE,69,6.0,12.0,71,0.00,,,0.00,0,Wunderground v.1.15,2013-03-18 02:38:00,
2013-03-17 21:39:00,25.1,17.0,30.13,ENE,63,6.0,12.0,71,0.00,,,0.00,0,Wunderground v.1.15,2013-03-18 02:39:00,
2013-03-17 21:40:00,25.1,17.0,30.13,East,98,7.0,7.0,71,0.00,,,0.00,0,Wunderground v.1.15,2013-03-18 02:40:00,
2013-03-17 21:41:00,25.1,17.0,30.13,East,84,7.0,10.0,71,0.00,,,0.00,0,Wunderground v.1.15,2013-03-18 02:41:00,
2013-03-17 21:46:00,25.0,16.9,30.13,East,94,6.0,13.0,71,0.00,,,0.00,0,Wunderground v.1.15,2013-03-18 02:46:00,
2013-03-17 21:47:00,25.0,16.9,30.13,ENE,69,7.0,13.0,71,0.00,,,0.00,0,Wunderground v.1.15,2013-03-18 02:47:00,
2013-03-17 21:49:00,24.9,16.8,30.12,NE,54,6.0,13.0,71,0.00,,,0.00,0,Wunderground v.1.15,2013-03-18 02:49:00,
2013-03-17 21:52:00,24.9,16.8,30.13,East,94,6.0,7.0,71,0.00,,,0.00,0,Wunderground v.1.15,2013-03-18 02:52:00,
2013-03-17 21:53:00,24.8,16.7,30.12,ENE,67,6.0,7.0,71,0.00,,,0.00,0,Wunderground v.1.15,2013-03-18 02:53:00,
2013-03-17 21:55:00,24.8,16.7,30.12,ENE,78,6.0,7.0,71,0.00,,,0.00,0,Wunderground v.1.15,2013-03-18 02:55:00,
2013-03-17 21:57:00,24.7,17.0,30.13,NE,53,5.0,7.0,72,0.00,,,0.00,0,Wunderground v.1.15,2013-03-18 02:57:00,
2013-03-17 21:58:00,24.7,17.0,30.13,East,96,4.0,7.0,72,0.00,,,0.00,0,Wunderground v.1.15,2013-03-18 02:58:00,
2013-03-17 22:01:00,24.7,17.0,30.13,ENE,67,5.0,11.0,72,0.00,,,0.00,0,Wunderground v.1.15,2013-03-18 03:01:00,
2013-03-17 22:02:00,24.7,17.0,30.13,ENE,57,5.0,11.0,72,0.00,,,0.00,0,Wunderground v.1.15,2013-03-18 03:02:00,
2013-03-17 22:05:00,24.6,16.9,30.13,East,100,5.0,11.0,72,0.00,,,0.00,0,Wunderground v.1.15,2013-03-18 03:05:00,
2013-03-17 22:08:00,24.5,16.8,30.13,East,96,5.0,11.0,72,0.00,,,0.00,0,Wunderground v.1.15,2013-03-18 03:08:00,
2013-03-17 22:13:00,24.5,16.8,30.12,ENE,58,5.0,11.0,72,0.00,,,0.00,0,Wunderground v.1.15,2013-03-18 03:13:00,
2013-03-17 22:14:00,24.5,16.8,30.12,ENE,78,5.0,11.0,72,0.00,,,0.00,0,Wunderground v.1.15,2013-03-18 03:14:00,
2013-03-17 22:15:00,24.5,16.8,30.12,ENE,77,5.0,11.0,72,0.00,,,0.00,0,Wunderground v.1.15,2013-03-18 03:15:00,
2013-03-17 22:17:00,24.4,16.7,30.12,ENE,69,5.0,11.0,72,0.00,,,0.00,0,Wunderground v.1.15,2013-03-18 03:17:00,
2013-03-17 22:20:00,24.3,16.6,30.12,East,85,5.0,5.0,72,0.00,,,0.00,0,Wunderground v.1.15,2013-03-18 03:20:00,
2013-03-17 22:21:00,24.3,16.6,30.12,ENE,62,5.0,7.0,72,0.00,,,0.00,0,Wunderground v.1.15,2013-03-18 03:21:00,
2013-03-17 22:23:00,24.3,16.6,30.11,East,87,5.0,8.0,72,0.00,,,0.00,0,Wunderground v.1.15,2013-03-18 03:23:00,
2013-03-17 22:26:00,24.3,16.6,30.11,ENE,67,5.0,8.0,72,0.00,,,0.00,0,Wunderground v.1.15,2013-03-18 03:26:00,
2013-03-17 22:28:00,24.2,16.8,30.11,East,98,6.0,8.0,73,0.00,,,0.00,0,Wunderground v.1.15,2013-03-18 03:28:00,
2013-03-17 22:30:00,24.2,16.8,30.11,East,93,6.0,6.0,73,0.00,,,0.00,0,Wunderground v.1.15,2013-03-18 03:30:00,
2013-03-17 22:32:00,24.2,16.8,30.11,ENE,63,6.0,6.0,73,0.00,,,0.00,0,Wunderground v.1.15,2013-03-18 03:32:00,
2013-03-17 22:33:00,24.1,16.7,30.11,East,88,5.0,6.0,73,0.00,,,0.00,0,Wunderground v.1.15,2013-03-18 03:33:00,
2013-03-17 22:36:00,24.0,16.6,30.11,ENE,61,5.0,8.0,73,0.00,,,0.00,0,Wunderground v.1.15,2013-03-18 03:36:00,
2013-03-17 22:37:00,24.0,16.6,30.11,East,99,5.0,11.0,73,0.00,,,0.00,0,Wunderground v.1.15,2013-03-18 03:37:00,
2013-03-17 22:39:00,23.9,16.5,30.11,East,80,5.0,11.0,73,0.00,,,0.00,0,Wunderground v.1.15,2013-03-18 03:39:00,
2013-03-17 22:42:00,23.9,16.5,30.11,East,85,4.0,6.0,73,0.00,,,0.00,0,Wunderground v.1.15,2013-03-18 03:42:00,
2013-03-17 22:43:00,23.8,16.4,30.11,ESE,103,4.0,6.0,73,0.00,,,0.00,0,Wunderground v.1.15,2013-03-18 03:43:00,
2013-03-17 22:45:00,23.8,16.4,30.11,East,96,4.0,6.0,73,0.00,,,0.00,0,Wunderground v.1.15,2013-03-18 03:45:00,
2013-03-17 22:47:00,23.9,16.8,30.11,ENE,59,5.0,6.0,74,0.00,,,0.00,0,Wunderground v.1.15,2013-03-18 03:47:00,
2013-03-17 22:50:00,23.8,16.7,30.11,East,82,5.0,6.0,74,0.00,,,0.00,0,Wunderground v.1.15,2013-03-18 03:50:00,
2013-03-17 22:52:00,23.8,16.7,30.10,East,88,5.0,7.0,74,0.00,,,0.00,0,Wunderground v.1.15,2013-03-18 03:52:00,
2013-03-17 22:55:00,23.8,16.7,30.10,ESE,119,5.0,7.0,74,0.00,,,0.00,0,Wunderground v.1.15,2013-03-18 03:55:00,
2013-03-17 22:56:00,23.8,16.7,30.10,ESE,102,5.0,7.0,74,0.00,,,0.00,0,Wunderground v.1.15,2013-03-18 03:56:00,
2013-03-17 22:57:00,23.8,16.7,30.10,ENE,76,4.0,7.0,74,0.00,,,0.00,0,Wunderground v.1.15,2013-03-18 03:57:00,
2013-03-17 23:00:00,23.7,16.6,30.10,SE,134,4.0,5.0,74,0.00,,,0.00,0,Wunderground v.1.15,2013-03-18 04:00:00,
2013-03-17 23:02:00,23.7,16.6,30.10,East,90,4.0,7.0,74,0.00,,,0.00,0,Wunderground v.1.15,2013-03-18 04:02:00,
2013-03-17 23:06:00,23.7,16.9,30.10,East,92,5.0,7.0,75,0.00,,,0.00,0,Wunderground v.1.15,2013-03-18 04:06:00,
2013-03-17 23:11:00,23.6,16.5,30.10,ENE,78,5.0,5.0,74,0.00,,,0.00,0,Wunderground v.1.15,2013-03-18 04:11:00,
2013-03-17 23:13:00,23.5,16.7,30.10,East,92,4.0,5.0,75,0.00,,,0.00,0,Wunderground v.1.15,2013-03-18 04:13:00,
2013-03-17 23:15:00,23.5,16.7,30.10,ESE,112,4.0,6.0,75,0.00,,,0.00,0,Wunderground v.1.15,2013-03-18 04:15:00,
2013-03-17 23:16:00,23.5,16.7,30.10,ENE,78,4.0,6.0,75,0.00,,,0.00,0,Wunderground v.1.15,2013-03-18 04:16:00,
2013-03-17 23:17:00,23.4,16.6,30.10,East,79,3.0,6.0,75,0.00,,,0.00,0,Wunderground v.1.15,2013-03-18 04:17:00,
2013-03-17 23:19:00,23.4,16.6,30.10,East,79,3.0,6.0,75,0.00,,,0.00,0,Wunderground v.1.15,2013-03-18 04:19:00,
2013-03-17 23:22:00,23.3,16.5,30.10,ENE,76,3.0,3.0,75,0.00,,,0.00,0,Wunderground v.1.15,2013-03-18 04:22:00,
2013-03-17 23:24:00,23.3,16.9,30.10,East,84,2.0,3.0,76,0.00,,,0.00,0,Wunderground v.1.15,2013-03-18 04:24:00,
2013-03-17 23:25:00,23.3,16.9,30.10,East,84,2.0,3.0,76,0.00,,,0.00,0,Wunderground v.1.15,2013-03-18 04:25:00,
2013-03-17 23:30:00,23.2,16.8,30.10,SSE,157,2.0,2.0,76,0.00,,,0.00,0,Wunderground v.1.15,2013-03-18 04:30:00,
2013-03-17 23:31:00,23.2,16.8,30.10,ENE,71,2.0,2.0,76,0.00,,,0.00,0,Wunderground v.1.15,2013-03-18 04:31:00,
2013-03-17 23:32:00,23.2,16.8,30.10,East,89,2.0,4.0,76,0.00,,,0.00,0,Wunderground v.1.15,2013-03-18 04:32:00,
2013-03-17 23:37:00,23.2,16.8,30.10,ENE,74,2.0,6.0,76,0.00,,,0.00,0,Wunderground v.1.15,2013-03-18 04:37:00,
2013-03-17 23:39:00,23.1,16.7,30.10,ENE,77,3.0,6.0,76,0.00,,,0.00,0,Wunderground v.1.15,2013-03-18 04:39:00,
2013-03-17 23:40:00,23.1,16.7,30.10,ENE,77,3.0,3.0,76,0.00,,,0.00,0,Wunderground v.1.15,2013-03-18 04:40:00,
2013-03-17 23:42:00,23.1,16.7,30.09,ENE,77,2.0,3.0,76,0.00,,,0.00,0,Wunderground v.1.15,2013-03-18 04:42:00,
2013-03-17 23:45:00,23.0,16.9,30.09,ENE,77,1.0,3.0,77,0.00,,,0.00,0,Wunderground v.1.15,2013-03-18 04:45:00,
2013-03-17 23:47:00,23.0,16.9,30.09,ENE,77,1.0,3.0,77,0.00,,,0.00,0,Wunderground v.1.15,2013-03-18 04:47:00,
2013-03-17 23:49:00,22.9,16.8,30.09,ENE,77,1.0,3.0,77,0.00,,,0.00,0,Wunderground v.1.15,2013-03-18 04:49:00,
2013-03-17 23:52:00,22.8,16.7,30.09,ENE,77,0.0,0.0,77,0.00,,,0.00,0,Wunderground v.1.15,2013-03-18 04:52:00,
2013-03-17 23:53:00,22.8,16.7,30.09,ENE,77,0.0,1.0,77,0.00,,,0.00,0,Wunderground v.1.15,2013-03-18 04:53:00,
2013-03-17 23:55:00,22.8,16.7,30.09,ENE,77,0.0,1.0,77,0.00,,,0.00,0,Wunderground v.1.15,2013-03-18 04:55:00,
2013-03-17 23:56:00,22.8,16.7,30.09,East,80,0.0,2.0,77,0.00,,,0.00,0,Wunderground v.1.15,2013-03-18 04:56:00,
2013-03-17 23:58:00,22.8,16.7,30.09,East,91,1.0,4.0,77,0.00,,,0.00,0,Wunderground v.1.15,2013-03-18 04:58:00,